ECMWFFLT1_con_mucape_000.txt.gz
CAPE
0 0 0 0 0 0 0 0 0 0 0 0 0 0 0 0 0 0 0 0 0 0 0 0 0 0 0 0 0 0 0 0 0 0 0 4 58 73 129 199 186 187 136 140 159 100 44 18 8 4 0 0 0 0 0 0 0 0 0 0 0 0 0
0 0 0 0 0 0 0 0 0 0 0 0 0 0 0 0 0 0 0 0 0 0 0 0 0 0 0 0 0 0 0 0 0 0 0 0 0 0 0 19 150 110 124 159 140 173 117 48 23 24 11 0 0 0 0 0 0 0 0 0 0 0 0
0 0 0 0 0 0 0 0 0 0 0 0 0 0 0 0 0 0 0 0 0 0 0 0 0 0 0 0 0 0 0 0 0 0 0 0 0 0 0 0 0 0 10 61 64 11 57 95 10 8 20 21 22 6 0 0 0 0 0 0 0 0 0
0 0 0 0 0 0 0 0 0 0 0 0 0 0 0 0 0 0 0 0 0 0 0 0 0 0 0 0 0 0 0 0 0 0 0 0 0 0 0 1 1 3 3 3 3 5 5 7 12 12 14 12 5 2 11 0 0 0 0 0 0 0 0
0 0 0 0 0 0 0 0 0 0 0 0 0 0 0 0 0 0 0 0 0 0 0 0 0 0 0 0 0 0 0 0 0 0 0 0 0 0 0 0 0 3 4 6 7 13 12 16 13 9 13 12 2 1 0 0 0 0 0 0 0 0 0
0 0 0 0 0 0 0 0 0 0 0 0 0 0 0 0 0 0 0 0 0 0 0 0 0 0 0 0 0 0 0 0 0 0 0 0 0 0 0 0 0 0 0 0 2 6 7 12 18 9 6 24 15 5 1 2 6 0 0 0 0 0 0
0 0 0 0 0 0 0 0 0 0 0 0 0 0 0 0 0 0 0 0 0 0 0 0 0 0 0 0 0 0 0 0 0 0 0 0 0 0 0 0 0 0 0 0 0 4 5 5 5 5 5 8 11 9 7 1 2 4 4 0 0 0 0
0 0 0 0 0 0 0 0 0 0 0 0 0 0 0 0 0 0 0 0 0 0 0 0 0 0 0 0 0 0 0 0 0 0 0 0 0 0 0 0 0 0 0 0 0 0 0 2 5 9 12 5 0 1 0 4 1 6 32 5 5 8 27
0 0 0 0 0 0 0 0 0 0 0 0 0 0 0 0 0 0 0 0 0 0 0 0 0 0 0 0 0 0 0 0 0 0 0 0 0 0 0 0 0 0 0 0 0 0 0 0 0 2 13 13 11 5 3 0 0 2 0 12 6 5 5
0 0 0 0 0 0 0 0 0 0 0 0 0 0 0 0 0 0 0 0 0 0 0 0 0 0 0 0 0 0 0 0 0 0 0 0 0 0 0 0 0 0 0 0 0 0 0 0 0 0 5 9 17 14 6 4 0 0 0 1 5 0 0
0 0 0 0 0 0 0 0 0 0 0 0 0 0 0 0 0 0 0 0 0 0 0 0 0 0 0 0 0 0 0 0 0 0 0 0 0 0 0 0 0 0 0 0 0 0 0 0 0 0 0 1 12 16 21 15 2 0 0 0 10 25 26
0 0 0 0 0 0 0 0 0 0 0 0 0 0 0 0 0 0 0 0 0 0 0 0 0 0 0 0 0 0 0 0 0 0 0 0 0 0 0 0 0 0 0 0 0 0 0 0 0 0 0 0 0 6 18 25 9 0 5 16 5 7 18
0 0 0 0 0 0 0 0 0 0 0 0 0 0 0 0 0 0 0 0 0 0 0 0 0 0 0 0 0 0 0 0 0 0 0 0 0 0 0 0 0 0 0 0 0 0 0 0 0 0 0 0 0 1 13 21 22 3 0 0 0 1 17
0 0 0 0 0 0 0 0 0 0 0 0 0 0 0 0 0 0 0 0 0 0 0 0 0 0 0 0 0 0 0 0 0 0 0 0 0 0 0 0 0 0 0 0 0 0 0 0 0 0 0 2 2 3 3 13 11 4 0 0 2 2 6
0 0 0 0 0 0 0 0 0 0 0 0 0 0 0 0 0 0 0 0 0 0 0 0 0 0 0 0 0 0 0 0 0 0 0 0 0 0 0 0 0 0 0 0 0 0 0 1 1 2 1 4 4 4 13 2 2 7 2 0 0 0 1
187 169 0 0 0 0 0 0 0 0 0 0 0 0 0 0 0 0 0 0 0 0 0 0 0 0 0 0 0 0 0 0 0 0 0 0 0 0 0 0 0 0 0 0 0 0 0 2 5 6 9 10 11 10 8 9 4 5 4 1 1 1 13
241 175 222 0 0 0 0 0 0 0 0 0 0 0 0 0 0 0 0 0 0 0 0 0 0 0 0 0 0 0 0 0 0 0 0 0 0 0 0 0 0 0 0 0 0 0 0 2 5 7 9 14 17 10 10 10 11 7 8 8 3 10 0
279 275 277 67 0 0 0 0 0 0 0 0 0 0 0 0 0 0 0 0 0 0 0 0 0 0 0 0 0 0 0 0 0 0 0 0 0 0 0 0 0 0 0 4 4 3 2 3 2 3 4 4 5 5 11 12 13 11 10 6 1 0 1
334 366 338 328 267 166 0 0 0 0 0 0 0 0 0 0 0 0 0 0 0 0 0 0 0 0 0 0 0 0 0 0 0 0 0 0 0 0 0 0 0 0 0 0 0 0 0 0 0 2 3 4 6 7 10 17 22 11 9 3 3 1 1
350 358 345 346 327 259 59 0 0 0 0 0 0 0 0 0 0 0 0 0 0 0 0 0 0 0 0 0 0 0 0 0 0 0 0 0 0 0 0 0 0 0 0 0 0 0 0 0 0 0 0 0 1 3 4 4 5 5 6 4 1 2 3
383 307 379 340 298 180 186 97 0 0 0 0 0 0 0 0 0 0 0 0 0 0 0 0 0 0 0 0 0 0 0 0 0 0 0 0 0 0 0 0 0 0 0 0 0 0 0 0 0 0 0 0 0 0 0 2 4 5 6 7 4 2 3
395 136 107 288 236 95 0 0 0 0 0 0 0 0 0 0 0 0 0 0 0 0 0 0 0 0 0 0 0 0 0 0 0 0 0 0 0 0 0 0 0 0 0 0 0 0 0 0 0 0 0 0 0 0 0 0 1 4 6 8 5 8 5
553 454 330 256 8 0 0 0 0 0 0 0 0 0 0 0 0 0 0 0 0 0 0 0 0 0 0 0 0 0 0 0 0 0 0 0 0 0 0 0 0 0 0 0 0 0 0 0 0 0 0 0 0 0 0 0 0 1 4 4 6 6 4
521 472 439 338 228 0 0 0 0 0 0 0 0 0 0 0 0 0 0 0 0 0 0 0 0 0 0 0 0 0 0 0 0 0 0 0 0 0 0 0 0 0 0 0 0 0 0 0 0 0 0 0 0 0 0 0 0 0 0 2 3 6 7
628 559 492 446 336 21 0 0 0 0 0 0 0 0 0 0 0 0 0 0 0 0 0 0 0 0 0 0 0 0 0 0 0 0 0 0 0 0 0 0 0 0 0 0 0 0 0 0 0 0 0 0 0 0 0 0 0 0 0 1 2 1 6
817 711 608 486 381 2 0 0 0 0 0 0 0 0 1 4 7 0 0 0 0 0 0 0 0 0 0 0 0 0 0 0 0 0 0 0 0 0 0 0 0 0 0 0 0 0 0 0 0 0 0 0 0 0 0 0 0 0 0 0 0 1 2
901 876 773 630 482 201 48 0 0 0 0 1 0 0 0 0 0 0 0 0 1 0 0 0 0 0 0 0 0 0 0 0 0 0 0 0 0 0 0 0 0 0 0 0 0 0 0 0 0 0 0 0 0 0 0 0 0 0 0 0 1 2 0
737 773 782 673 525 385 203 98 0 3 0 0 0 0 0 0 0 0 0 1 0 0 0 0 0 0 0 0 0 0 0 0 0 0 0 0 0 0 0 0 0 0 0 0 0 0 0 0 0 0 0 0 0 0 0 0 0 0 0 0 2 3 4
499 566 587 560 516 468 295 2 9 2 0 0 0 0 0 0 0 0 0 0 0 0 0 0 0 0 0 0 0 0 0 0 0 0 0 0 0 0 0 0 0 0 0 0 0 0 0 0 0 0 0 0 0 0 0 0 0 0 0 2 3 5 6
346 406 429 431 454 376 5 109 0 0 0 0 0 0 0 0 0 0 0 0 0 0 0 0 0 0 0 0 0 0 0 0 0 0 0 0 0 0 0 0 0 0 0 0 0 0 0 0 0 1 1 1 1 1 1 1 1 1 0 0 0 0 0
261 283 301 337 339 178 0 0 0 4 0 0 0 0 0 0 0 0 0 0 0 0 0 0 0 0 0 0 0 0 0 0 0 0 0 0 0 0 0 0 0 0 0 0 0 0 0 0 1 0 0 0 1 1 1 2 2 4 6 5 5 3 2
230 240 251 259 238 0 0 0 0 0 0 0 0 1 6 2 0 0 0 0 0 0 0 0 0 0 0 0 0 0 0 0 0 0 0 0 0 0 0 0 0 0 0 0 0 0 0 0 1 2 1 1 1 1 0 1 1 2 3 4 4 4 2
222 241 127 8 7 0 0 0 0 0 0 0 2 0 0 0 0 0 0 0 0 0 0 0 0 0 0 0 0 0 0 0 0 0 0 0 0 0 0 0 0 0 0 0 0 0 0 1 1 2 4 2 2 1 1 1 1 2 3 2 2 4 3
183 163 114 59 19 14 17 14 22 6 0 2 0 0 0 1 1 0 0 0 0 0 0 0 0 0 0 0 0 0 0 0 0 0 0 0 0 0 0 0 0 0 0 0 0 0 0 2 3 5 4 3 2 3 6 4 3 5 4 7 8 6 6
87 60 44 6 4 0 20 23 11 22 0 0 2 0 4 0 0 0 0 0 0 0 0 0 0 0 0 0 0 0 0 0 0 0 0 0 0 0 0 0 0 0 0 0 0 1 2 4 6 8 5 7 9 12 10 7 7 6 4 2 4 4 2
25 0 6 0 16 26 35 26 18 3 1 0 0 0 0 0 0 0 0 0 0 0 0 0 0 0 0 0 0 0 0 0 0 0 0 0 0 0 0 0 0 0 0 1 2 5 7 10 10 5 4 3 7 8 9 9 7 4 2 2 2 2 1
0 6 27 1 16 6 7 13 6 2 0 3 4 0 0 0 0 0 0 0 0 0 0 0 0 0 0 0 0 0 0 0 0 0 0 0 0 0 0 0 1 3 5 4 6 8 7 7 7 5 2 0 1 1 0 0 0 0 0 1 1 2 2

ECMWFFLT1_con_mucape_006.txt.gz
CAPE
0 4 13 24 10 4 2 5 18 57 30 19 13 7 1 0 1 2 4 4 2 0 2 10 15 8 9 38 40 56 47 88 137 217 250 291 161 60 268 240 286 389 225 467 469 413 484 247 249 535 617 502 407 554 423 379 499 846 950 814 435 521 664
4 2 1 2 8 6 26 10 24 20 24 4 0 4 1 0 0 0 0 0 0 0 0 0 0 4 14 29 37 36 27 20 19 30 27 33 42 54 88 80 144 229 354 438 317 139 270 216 261 428 311 349 227 172 532 754 595 552 590 625 593 477 547
0 0 0 7 20 16 11 27 14 10 0 0 0 0 0 0 0 0 0 0 0 0 0 0 0 0 0 0 4 11 15 14 10 12 2 0 0 6 0 1 2 8 37 106 67 23 70 152 103 98 90 29 114 281 84 1 13 12 234 361 469 278 217
0 1 11 19 19 22 1 0 2 0 0 0 0 0 0 0 0 0 0 0 0 0 0 0 0 0 0 0 0 0 0 0 0 0 0 0 0 0 0 0 0 0 0 1 1 0 0 1 1 5 2 0 0 1 6 7 2 4 7 4 4 56 231
13 7 3 8 23 9 5 0 0 0 0 0 0 0 0 0 0 0 0 0 0 0 0 0 0 0 0 0 0 0 0 0 0 0 0 0 0 0 0 0 0 0 0 0 0 0 0 0 0 0 0 0 0 0 0 0 0 0 1 6 7 18 167
104 22 5 19 11 0 3 0 0 0 0 0 0 0 0 0 0 0 0 0 0 0 0 0 0 0 0 0 0 0 0 0 0 0 0 0 0 0 0 0 0 0 0 0 0 0 0 0 0 0 0 0 0 0 0 0 0 0 0 0 0 7 32
261 128 27 41 37 5 4 1 0 0 0 0 0 0 0 0 0 0 0 0 0 0 0 0 0 0 0 0 0 0 0 0 0 0 0 0 0 0 0 0 0 0 0 0 0 0 0 0 0 0 0 0 0 0 0 0 0 0 0 0 0 4 5
313 173 94 59 191 23 20 9 0 0 0 0 0 0 0 0 0 0 0 0 0 0 0 0 0 0 0 0 0 0 0 0 0 0 0 0 0 0 0 0 0 0 0 0 0 0 0 0 0 0 0 0 0 0 0 0 0 0 0 0 0 0 0
475 212 93 94 276 196 112 20 0 0 0 0 0 2 0 0 0 0 0 0 0 0 0 0 0 0 0 0 0 0 0 0 0 0 0 0 0 0 0 0 0 0 0 0 0 0 0 0 0 0 0 0 0 0 0 0 0 0 0 0 0 0 0
948 797 346 519 598 546 368 99 12 4 0 0 4 47 1 0 0 0 0 0 0 0 0 0 0 0 0 0 0 0 0 0 0 0 0 0 0 0 0 0 0 0 0 0 0 0 0 0 0 0 0 0 0 0 0 0 0 0 0 0 0 0 0
1003 977 950 1052 931 742 649 366 138 33 69 26 54 84 21 0 0 0 0 0 0 0 0 0 0 0 0 0 0 0 0 0 0 0 0 0 0 0 0 0 0 0 0 0 0 0 0 0 0 0 0 0 0 0 0 0 0 0 0 0 0 0 0
1042 1027 1031 1141 1072 890 721 472 391 259 170 136 28 99 93 24 5 0 0 0 0 0 0 0 0 0 0 0 0 0 0 0 0 0 0 0 0 0 0 0 0 0 0 0 0 0 0 0 0 0 0 0 0 0 0 0 0 0 0 0 0 0 0
942 960 1114 1213 1146 902 776 572 481 416 328 147 45 113 71 53 36 10 4 0 0 0 0 0 0 0 0 0 0 0 0 0 0 0 0 0 0 0 0 0 0 0 0 0 0 0 0 0 0 0 0 0 0 0 0 0 0 0 0 0 0 0 0
1014 969 1063 1158 1106 952 822 697 638 513 439 208 66 79 48 36 31 35 12 1 0 0 0 0 0 0 0 0 0 0 0 0 0 0 0 0 0 0 0 0 0 0 0 0 0 0 0 0 0 0 0 0 0 0 0 0 0 0 0 0 0 0 0
971 976 1048 1151 1105 934 870 784 795 584 545 333 137 76 48 53 34 38 12 2 0 0 0 0 0 0 0 0 0 0 0 0 0 0 0 0 0 0 0 0 0 0 0 0 0 0 0 0 0 0 0 0 0 0 0 0 0 0 0 0 0 0 0
725 950 1012 1084 1131 929 863 841 773 703 633 446 286 146 45 109 58 31 32 10 0 0 0 0 0 0 0 0 0 0 0 0 0 0 0 0 0 0 0 0 0 0 0 0 0 0 0 0 0 0 0 0 0 0 0 0 0 0 0 0 0 0 0
924 984 966 919 968 1035 863 834 762 717 559 526 395 216 83 177 73 40 48 26 2 0 0 0 0 0 0 0 0 0 0 0 0 0 0 0 0 0 0 0 0 0 0 0 0 0 0 0 0 0 0 0 0 0 0 0 0 0 0 0 0 0 0
989 1010 1054 910 800 854 886 794 759 612 554 558 460 372 226 295 93 61 101 38 1 0 0 0 0 0 0 0 0 0 0 0 0 0 0 0 0 0 0 0 0 0 0 0 0 0 0 0 0 0 0 0 0 0 0 0 0 0 0 0 0 0 0
1076 1083 1082 1046 918 788 737 707 759 691 499 544 531 483 504 297 170 74 147 24 0 0 0 0 0 0 0 0 0 0 0 0 0 0 0 0 0 0 0 0 0 0 0 0 0 0 0 0 0 0 0 0 0 0 0 0 0 0 0 0 0 0 0
1155 1186 1230 1069 1056 909 785 746 709 707 562 526 562 575 476 370 278 181 103 11 0 0 0 0 0 0 0 0 0 0 0 0 0 0 0 0 0 0 0 0 0 0 0 0 0 0 0 0 0 0 0 0 0 0 0 0 0 0 0 0 0 0 0
1126 1191 1138 1110 1052 1033 898 722 671 693 598 561 525 543 61 266 57 44 44 1 0 0 0 0 0 0 0 0 0 0 0 0 0 0 0 0 0 0 0 0 0 0 0 0 0 0 0 0 0 0 0 0 0 0 0 0 0 0 0 0 0 0 0
727 982 1054 1060 1039 992 966 894 827 758 652 584 519 456 437 157 136 95 48 59 0 0 0 0 0 0 0 0 0 0 0 0 0 0 0 0 0 0 0 0 0 0 0 0 0 0 0 0 0 0 0 0 0 0 0 0 0 0 0 0 0 0 0
426 520 777 917 960 946 840 908 887 808 721 520 528 377 355 247 210 39 36 30 62 78 46 2 0 0 0 0 0 0 0 0 0 0 0 0 0 0 0 0 0 0 0 0 0 0 0 0 0 0 0 0 0 0 0 0 0 0 0 0 0 0 0
93 396 541 562 864 900 774 676 742 726 657 556 484 440 449 456 170 28 76 105 101 67 30 8 66 0 0 0 0 0 0 0 0 0 0 0 0 0 0 0 0 0 0 0 0 0 0 0 0 0 0 0 0 0 0 0 0 0 0 0 0 0 0
0 60 279 424 554 678 651 596 524 578 578 496 481 472 468 201 113 86 162 129 113 0 44 2 12 6 0 0 0 0 0 0 0 0 0 0 0 0 0 0 0 0 0 0 0 0 0 0 0 0 0 0 0 0 0 0 0 0 0 0 0 0 0
0 2 124 391 463 568 515 514 528 508 462 302 266 261 127 203 168 144 105 62 23 12 90 0 2 12 1 0 0 0 0 0 0 0 0 0 0 0 0 0 0 0 0 0 0 0 0 0 0 0 0 0 0 0 0 0 0 0 0 0 0 0 0
0 0 49 322 390 390 460 448 527 507 380 352 312 296 264 269 194 156 113 115 91 105 40 30 19 12 0 0 0 0 0 0 0 0 0 0 0 0 0 0 0 0 0 0 0 0 0 0 0 0 0 0 0 0 0 0 0 0 0 0 0 0 0
0 0 0 26 255 253 266 363 380 320 311 347 362 359 317 276 244 225 194 161 0 101 59 128 38 4 0 0 0 0 0 0 0 0 0 0 0 0 0 0 0 0 0 0 0 0 0 0 0 0 0 0 0 0 0 0 1 1 1 0 0 0 2
0 0 0 4 44 160 223 257 227 261 250 341 256 208 294 286 270 225 196 0 0 0 87 63 0 0 0 0 0 0 0 0 0 0 0 0 0 0 0 0 0 0 0 0 0 0 0 0 0 0 0 0 0 0 0 0 0 0 0 0 0 0 1
0 0 0 0 32 171 232 234 244 202 219 264 252 218 262 215 234 209 111 103 10 0 0 0 0 0 0 0 0 0 0 0 0 0 0 0 0 0 0 0 0 0 0 0 0 0 0 0 0 0 0 0 0 0 0 0 0 0 0 0 0 0 0
0 0 0 0 16 142 240 242 242 216 201 204 211 150 249 198 172 136 21 0 0 0 0 0 0 0 0 0 0 0 0 0 0 0 0 0 0 0 0 0 0 0 0 0 0 0 0 0 0 0 0 0 0 0 0 0 0 2 0 0 0 0 0
0 0 0 3 59 194 287 271 255 202 172 212 238 155 120 190 149 0 0 10 0 0 0 0 0 1 0 0 0 0 0 0 0 0 0 0 0 0 0 0 0 0 0 0 0 0 0 0 0 0 0 0 0 0 0 0 0 2 1 2 4 2 1
0 0 2 15 70 190 258 227 244 204 207 204 207 81 0 117 0 149 82 1 8 13 2 0 0 0 0 0 0 0 0 0 0 0 0 0 0 0 0 0 0 0 0 0 0 0 0 0 0 0 1 4 3 2 0 1 2 0 4 1 0 0 4
0 0 64 128 128 210 193 200 214 251 265 196 98 0 0 20 35 2 41 8 0 0 0 0 0 0 0 0 0 0 0 0 0 0 0 0 0 0 0 0 0 0 0 0 0 0 0 0 0 0 2 4 2 1 1 3 2 0 3 5 4 4 4
0 10 89 172 172 148 159 192 150 83 99 139 150 112 0 0 41 6 4 0 4 1 0 3 0 0 0 0 0 0 0 0 0 0 0 0 0 0 0 0 0 0 0 0 0 0 0 0 0 0 1 0 0 0 2 1 3 2 0 4 5 4 3
0 29 156 128 66 133 151 164 56 96 155 219 230 186 0 0 1 3 1 1 0 0 0 0 0 0 0 0 0 0 0 0 0 0 0 0 0 0 0 0 0 0 0 0 0 0 0 0 0 0 0 0 1 2 1 0 2 0 0 0 0 0 1
10 102 186 138 80 117 104 43 72 147 227 169 245 99 0 0 0 2 1 0 0 0 0 0 0 0 0 0 0 0 0 0 0 0 0 0 0 0 0 0 0 0 0 0 0 0 0 0 0 0 0 0 0 1 1 0 0 1 1 2 2 1 0

ECMWFFLT1_con_mucape_009.txt.gz
CAPE
10 39 10 10 3 4 13 71 85 96 57 50 20 1 0 0 0 1 3 4 0 0 3 4 16 6 10 9 13 52 25 105 202 306 392 344 409 449 538 546 435 271 286 358 304 148 276 150 621 982 582 812 476 316 347 396 761 809 1225 380 256 172 471
37 14 11 3 3 8 25 26 19 7 26 36 22 4 0 0 0 0 0 0 0 0 0 0 0 2 12 29 30 39 41 50 66 92 60 63 57 140 312 403 365 382 329 362 268 190 95 126 162 384 452 716 712 392 284 344 303 754 1079 676 233 116 200
1 1 5 9 16 14 46 26 3 0 0 0 0 0 0 0 0 0 0 0 0 0 0 0 0 0 0 2 9 23 23 12 10 14 34 16 9 10 4 10 6 6 117 156 101 74 84 222 185 95 82 32 123 369 234 44 28 0 0 419 624 388 221
1 2 14 14 8 17 4 4 1 0 0 0 0 0 0 0 0 0 0 0 0 0 0 0 0 0 0 0 0 0 0 0 0 0 0 0 0 0 0 0 0 0 0 1 4 1 0 0 0 0 0 0 0 0 30 32 89 6 0 0 0 0 0
8 8 45 9 3 15 3 5 2 0 0 0 0 0 0 0 0 0 0 0 0 0 0 0 0 0 0 0 0 0 0 0 0 0 0 0 0 0 0 0 0 0 0 0 0 0 0 0 0 0 0 0 0 0 0 0 0 3 53 0 0 0 0
48 14 135 88 13 44 1 5 0 0 0 0 0 0 0 0 0 0 0 0 0 0 0 0 0 0 0 0 0 0 0 0 0 0 0 0 0 0 0 0 0 0 0 0 0 0 0 0 0 0 0 0 0 0 0 0 0 0 0 0 0 1 0
92 37 142 102 53 58 3 15 0 5 0 0 0 0 0 0 0 0 0 0 0 0 0 0 0 0 0 0 0 0 0 0 0 0 0 0 0 0 0 0 0 0 0 0 0 0 0 0 0 0 0 0 0 0 0 0 0 0 0 0 0 0 0
104 87 67 78 85 64 33 14 0 4 4 5 0 0 0 0 0 0 0 0 0 0 0 0 0 0 0 0 0 0 0 0 0 0 0 0 0 0 0 0 0 0 0 0 0 0 0 0 0 0 0 0 0 0 0 0 0 0 0 0 0 0 0
240 150 47 112 99 101 111 42 2 10 8 15 10 0 0 0 0 0 0 0 0 0 0 0 0 0 0 0 0 0 0 0 0 0 0 0 0 0 0 0 0 0 0 0 0 0 0 0 0 0 0 0 0 0 0 0 0 0 0 0 0 0 0
366 283 144 164 327 168 209 130 6 8 39 66 53 17 0 7 7 0 0 0 0 0 0 0 0 0 0 0 0 0 0 0 0 0 0 0 0 0 0 0 0 0 0 0 0 0 0 0 0 0 0 0 0 0 0 0 0 0 0 0 0 0 0
688 446 251 174 380 286 268 200 29 31 30 71 127 70 2 12 24 4 7 0 0 0 0 0 0 0 0 0 0 0 0 0 0 0 0 0 0 0 0 0 0 0 0 0 0 0 0 0 0 0 0 0 0 0 0 0 0 0 0 0 0 0 0
897 896 662 330 396 466 409 262 117 82 63 71 192 132 21 25 39 13 38 5 0 0 0 0 0 0 0 0 0 0 0 0 0 0 0 0 0 0 0 0 0 0 0 0 0 0 0 0 0 0 0 0 0 0 0 0 0 0 0 0 0 0 0
817 689 699 702 778 560 352 153 228 222 117 93 284 193 62 33 26 22 50 15 7 0 0 0 0 0 0 0 0 0 0 0 0 0 0 0 0 0 0 0 0 0 0 0 0 0 0 0 0 0 0 0 0 0 0 0 0 0 0 0 0 0 0
864 306 209 446 760 736 400 164 225 318 235 249 311 276 93 87 40 29 59 41 23 0 0 0 0 0 0 0 0 0 0 0 0 0 0 0 0 0 0 0 0 0 0 0 0 0 0 0 0 0 0 0 0 0 0 0 0 0 0 0 0 0 0
1079 748 663 500 737 1016 647 658 143 208 115 253 274 264 136 143 100 55 39 53 36 2 0 0 0 0 0 0 0 0 0 0 0 0 0 0 0 0 0 0 0 0 0 0 0 0 0 0 0 0 0 0 0 0 0 0 0 0 0 0 0 0 0
780 1001 924 840 705 710 840 792 658 454 168 132 212 281 202 191 145 99 61 69 46 26 2 0 0 0 0 0 0 0 0 0 0 0 0 0 0 0 0 0 0 0 0 0 0 0 0 0 0 0 0 0 0 0 0 0 0 0 0 0 0 0 0
978 630 498 723 642 348 786 834 768 610 707 389 242 166 109 137 198 135 104 90 88 54 29 5 1 0 0 0 0 0 0 0 0 0 0 0 0 0 0 0 0 0 0 0 0 0 0 0 0 0 0 0 0 0 0 0 0 0 0 0 0 0 0
1326 1307 995 1021 722 634 456 685 502 787 538 763 249 250 188 69 167 200 189 143 114 104 77 25 7 0 0 0 0 0 0 0 0 0 0 0 0 0 0 0 0 0 0 0 0 0 0 0 0 0 0 0 0 0 0 0 0 0 0 0 0 0 0
1146 1195 938 751 660 839 997 930 1003 832 656 782 399 591 404 188 224 246 220 220 192 159 119 42 10 0 0 0 0 0 0 0 0 0 0 0 0 0 0 0 0 0 0 0 0 0 0 0 0 0 0 0 0 0 0 0 0 0 0 0 0 0 0
909 1081 1163 758 908 955 919 882 844 790 831 718 680 604 632 420 174 140 199 266 235 225 164 59 26 5 0 0 0 0 0 0 0 0 0 0 0 0 0 0 0 0 0 0 0 0 0 0 0 0 0 0 0 0 0 0 0 0 0 0 0 0 0
447 578 1024 1157 1133 1256 1338 1197 1148 954 832 702 670 458 325 484 135 164 83 13 308 268 184 82 45 18 3 0 0 0 0 0 0 0 0 0 0 0 0 0 0 0 0 0 0 0 0 0 0 0 0 0 0 0 0 0 0 0 0 0 0 0 0
54 534 1064 742 911 978 1025 1173 1309 1176 1149 738 905 859 342 380 418 411 383 246 372 282 179 121 50 20 29 28 13 18 12 0 0 0 0 0 0 0 0 0 0 0 0 0 0 0 0 0 0 0 0 0 0 0 0 0 0 0 0 0 0 0 0
41 178 221 340 554 797 870 988 1041 1082 1062 1096 980 760 848 618 178 326 711 491 438 347 21 142 47 0 0 16 52 9 0 0 0 0 0 0 0 0 0 0 0 0 0 0 0 0 0 0 0 0 0 0 0 0 0 0 0 0 0 0 0 0 0
0 0 5 172 339 358 426 589 740 773 827 922 1020 943 782 704 566 606 490 343 125 119 78 41 1 20 25 71 120 69 13 0 0 0 0 0 0 0 0 0 0 0 0 0 0 0 0 0 0 0 0 0 0 0 0 0 0 0 0 0 0 0 0
0 0 0 0 37 186 347 504 513 597 671 718 808 919 812 788 843 690 572 132 87 170 89 76 142 12 53 96 71 33 27 17 40 24 0 0 0 0 0 0 0 0 0 0 0 0 0 0 0 0 0 0 0 0 0 0 0 0 0 0 0 0 0
0 0 0 0 4 67 81 208 380 439 501 588 654 802 819 803 721 523 360 302 180 83 31 224 196 124 159 62 79 21 12 40 55 1 0 0 0 0 0 0 0 0 0 0 0 0 0 0 0 0 0 0 0 0 0 0 0 0 0 0 0 0 0
0 0 0 0 0 18 140 106 192 343 378 484 538 508 537 622 567 490 298 246 162 8 134 230 209 130 110 66 63 47 42 2 0 0 0 0 0 0 0 0 0 0 0 0 0 0 0 0 0 0 0 0 0 0 0 0 0 0 0 0 0 0 0
0 0 0 0 0 0 2 97 178 280 250 253 357 392 474 419 412 448 403 261 178 0 0 0 132 35 0 7 21 75 30 0 0 0 0 0 0 0 0 0 0 0 0 0 0 0 0 0 0 0 0 0 0 0 0 0 0 0 0 0 0 0 0
0 0 0 0 0 0 0 22 249 296 284 250 280 329 368 455 470 490 320 293 57 0 0 0 0 13 0 0 6 16 1 0 0 4 0 0 0 0 0 0 0 0 0 0 0 0 0 0 0 0 0 0 0 0 0 0 0 1 0 0 1 0 0
0 0 0 0 0 0 0 0 101 195 230 273 265 240 278 394 450 481 340 211 86 0 0 0 0 11 0 0 8 11 0 4 17 3 0 0 0 0 0 0 0 0 0 0 0 0 0 0 0 0 0 0 0 0 0 0 0 0 0 0 0 0 0
0 0 0 0 0 0 0 0 28 133 212 203 232 286 261 274 387 407 316 181 1 0 0 0 0 0 0 4 0 0 3 9 0 0 0 0 0 0 0 0 0 0 0 0 0 0 0 0 0 0 0 0 0 0 0 0 0 0 0 0 0 0 0
0 0 0 0 0 0 0 0 28 111 137 212 219 222 164 238 347 398 162 63 0 0 0 1 74 22 0 2 9 8 2 0 0 0 0 0 0 0 0 0 0 0 0 0 0 0 0 0 0 0 0 0 0 0 0 0 0 2 0 1 0 5 1
0 0 2 0 0 1 1 0 20 122 155 148 131 171 157 234 280 163 44 0 0 0 0 2 2 0 2 1 0 0 1 1 0 0 0 0 0 0 0 0 0 0 0 0 0 0 0 0 0 0 0 0 0 0 0 0 0 0 0 0 0 0 0
0 3 18 18 7 4 23 33 40 118 132 107 135 202 171 249 251 6 0 0 0 0 0 0 0 0 0 0 1 3 1 0 0 0 0 0 0 0 0 0 0 0 0 0 0 0 0 0 0 0 0 0 0 0 0 0 0 0 1 2 1 1 2
1 17 49 48 26 16 26 81 79 128 96 125 156 191 171 110 1 34 2 0 0 0 0 4 14 5 15 7 0 0 0 0 1 0 0 0 0 0 0 0 0 0 0 0 0 0 0 0 0 0 0 0 0 0 0 0 0 0 0 0 1 2 1
0 5 63 118 108 105 87 77 140 114 135 272 274 291 227 82 12 0 0 2 0 0 0 0 0 0 0 0 0 0 0 0 0 0 0 0 0 0 0 0 0 0 0 0 0 0 0 0 0 0 0 0 0 0 0 0 1 2 2 2 0 0 0
0 0 16 80 151 183 154 158 99 127 236 200 145 89 0 51 9 0 0 1 1 0 0 0 0 0 0 0 1 1 2 0 0 0 0 0 0 0 0 0 0 0 0 0 0 0 0 0 0 0 0 0 0 0 0 2 0 1 0 0 4 1 0

ECMWFFLT1_con_mucape_012.txt.gz
CAPE
390 166 360 270 424 262 381 251 156 238 41 48 184 11 18 2 8 0 0 0 4 0 0 0 3 16 40 59 98 154 148 318 479 381 277 251 247 258 533 388 474 448 530 510 574 567 361 114 381 1169 782 609 942 472 282 186 327 1246 1353 1214 295 251 769
159 163 26 3 95 320 319 369 258 45 133 92 0 0 0 0 0 0 0 0 0 0 0 0 0 1 22 62 101 102 82 56 59 185 296 277 278 439 318 561 569 566 545 459 296 297 85 26 24 48 348 960 725 432 384 413 38 54 774 930 797 580 581
81 30 0 83 134 266 326 200 78 86 28 20 0 0 0 0 0 0 0 0 0 0 0 0 0 0 0 0 4 10 20 9 10 4 2 14 4 0 5 283 320 276 381 216 214 222 98 52 0 7 52 73 66 674 670 344 27 0 5 383 1279 951 591
148 148 77 128 100 246 92 91 73 74 57 0 0 0 0 0 0 0 0 0 0 0 0 0 0 0 0 0 0 0 0 0 0 0 0 1 2 0 0 0 0 0 0 0 0 0 0 0 0 0 0 0 0 0 222 147 17 0 0 0 0 0 18
177 207 138 120 122 126 100 124 114 67 0 0 0 0 0 0 0 0 0 0 0 0 0 0 0 0 0 0 0 0 0 0 0 0 0 0 0 0 0 0 0 0 0 0 0 0 0 0 0 0 0 0 0 0 0 0 0 0 0 0 1 1 1
222 305 183 243 121 152 99 118 5 0 0 0 0 0 0 0 0 0 0 0 0 0 0 0 0 0 0 0 0 0 0 0 0 0 0 0 0 0 0 0 0 0 0 0 0 0 0 0 0 0 0 0 0 0 0 0 0 0 0 0 1 0 8
326 451 230 253 261 207 184 269 36 3 0 1 0 0 0 0 0 0 0 0 0 0 0 0 0 0 0 0 0 0 0 0 0 0 0 0 0 0 0 0 0 0 0 0 0 0 0 0 0 0 0 0 0 0 0 0 0 0 0 0 0 0 0
380 590 383 382 334 371 268 353 254 95 24 2 0 0 0 2 2 0 0 0 0 0 0 0 0 0 0 0 0 0 0 0 0 0 0 0 0 0 0 0 0 0 0 0 0 0 0 0 0 0 0 0 0 0 0 0 0 0 0 0 0 0 0
314 459 526 456 434 734 373 326 425 296 185 101 10 0 0 24 0 0 0 0 0 0 0 0 0 0 0 0 0 0 0 0 0 0 0 0 0 0 0 0 0 0 0 0 0 0 0 0 0 0 0 0 0 0 0 0 0 0 0 0 0 0 0
421 402 496 633 501 821 736 326 424 427 464 245 130 9 4 59 12 0 0 0 0 0 0 0 0 0 0 0 0 0 0 0 0 0 0 0 0 0 0 0 0 0 0 0 0 0 0 0 0 0 0 0 0 0 0 0 0 0 0 0 0 0 0
594 659 560 1028 572 622 1032 388 583 502 608 392 183 47 20 166 55 11 3 0 0 0 0 0 0 0 0 0 0 0 0 0 0 0 0 0 0 0 0 0 0 0 0 0 0 0 0 0 0 0 0 0 0 0 0 0 0 0 0 0 0 0 0
1022 985 707 1118 737 563 845 566 489 446 627 462 256 89 50 144 158 19 61 0 0 0 0 0 0 0 0 0 0 0 0 0 0 0 0 0 0 0 0 0 0 0 0 0 0 0 0 0 0 0 0 0 0 0 0 0 0 0 0 0 0 0 0
1070 914 980 1144 960 721 777 801 668 450 728 460 443 201 60 127 163 53 104 11 1 0 0 0 0 0 0 0 0 0 0 0 0 0 0 0 0 0 0 0 0 0 0 0 0 0 0 0 0 0 0 0 0 0 0 0 0 0 0 0 0 0 0
1169 909 1000 513 818 1145 859 600 558 766 632 485 586 320 104 157 132 84 118 57 13 0 0 0 0 0 0 0 0 0 0 0 0 0 0 0 0 0 0 0 0 0 0 0 0 0 0 0 0 0 0 0 0 0 0 0 0 0 0 0 0 0 0
851 719 1022 873 821 1135 775 955 948 852 743 607 641 500 232 185 185 143 105 114 68 2 0 0 0 0 0 0 0 0 0 0 0 0 0 0 0 0 0 0 0 0 0 0 0 0 0 0 0 0 0 0 0 0 0 0 0 0 0 0 0 0 0
1283 1364 1395 1321 1532 1564 1122 1000 1026 925 1064 709 584 631 395 234 230 161 136 153 122 54 11 2 0 0 0 0 0 0 0 0 0 0 0 0 0 0 0 0 0 0 0 0 0 0 0 0 0 0 0 0 0 0 0 0 0 0 0 0 0 0 0
734 1180 1360 1473 1664 1274 1256 1056 915 1186 766 826 895 591 589 427 287 213 144 138 151 115 52 31 9 5 0 0 0 0 0 0 0 0 0 0 0 0 0 0 0 0 0 0 0 0 0 0 0 0 0 0 0 0 0 0 0 0 0 0 0 0 0
725 1246 1659 1605 1277 879 887 844 791 445 199 297 288 220 594 502 366 278 265 186 135 127 89 45 11 8 0 2 0 0 0 0 0 0 0 0 0 0 0 0 0 0 0 0 0 0 0 0 0 0 0 0 0 0 0 0 0 0 0 0 0 0 0
1167 1394 1567 1400 1164 701 561 471 483 632 657 189 47 25 234 477 362 318 302 268 166 157 126 55 24 6 0 3 0 0 0 0 0 0 0 0 0 0 0 0 0 0 0 0 0 0 0 0 0 0 0 0 0 0 0 0 0 0 0 0 0 0 0
1112 1377 1277 1231 1041 704 494 458 612 696 444 245 425 518 610 591 451 84 174 250 243 218 180 110 56 16 0 3 2 0 0 0 0 0 0 0 0 0 0 0 0 0 0 0 0 0 0 0 0 0 0 0 0 0 0 0 0 0 0 0 0 0 0
1064 1272 1351 1338 1029 705 479 478 520 612 514 315 341 375 353 20 286 43 352 231 214 175 224 199 106 59 13 52 10 0 0 0 0 0 0 0 0 0 0 0 0 0 0 0 0 0 0 0 0 0 0 0 0 0 0 0 0 0 0 0 0 0 0
23 91 321 549 995 1016 741 652 723 605 503 445 394 362 380 455 383 325 349 397 545 322 43 48 86 65 183 188 18 1 0 0 0 0 0 0 0 0 0 0 0 0 0 0 0 0 0 0 0 0 0 0 0 0 0 0 0 0 0 0 0 0 0
149 178 498 797 772 753 1003 1238 1091 813 803 797 862 782 710 568 453 378 331 510 303 115 61 45 69 71 104 135 136 135 0 0 29 26 4 0 0 6 19 4 0 0 0 0 0 0 0 0 0 0 0 0 0 0 0 0 0 0 0 0 0 0 0
2 32 207 466 590 615 728 844 990 975 982 973 1022 853 884 775 765 606 531 418 298 248 274 87 10 0 7 6 20 5 13 41 37 36 22 22 24 12 11 0 0 0 0 0 0 0 0 0 0 0 0 0 0 0 0 0 0 0 0 0 0 0 0
0 0 0 0 8 74 277 411 518 678 931 1030 1241 1179 1252 1051 835 749 809 530 455 344 209 36 0 0 20 0 0 0 88 6 12 35 58 53 22 0 0 0 0 0 0 0 0 0 0 0 0 0 0 0 0 0 0 0 0 0 0 0 0 0 0
0 0 0 0 4 20 45 73 98 344 537 890 800 862 854 956 1022 1084 863 734 613 517 291 0 0 0 0 0 133 164 0 2 36 19 36 50 0 32 11 0 0 0 0 0 0 0 0 0 0 0 0 0 0 0 0 0 0 0 0 0 0 0 0
0 0 0 0 0 0 2 47 259 341 405 521 688 604 722 775 883 914 739 566 493 405 386 350 242 186 0 0 0 30 0 0 7 1 2 0 6 9 0 0 0 0 0 0 0 0 0 0 0 0 0 0 0 0 0 0 0 0 0 0 0 0 0
0 0 0 0 0 0 2 15 71 160 275 392 374 568 676 574 589 610 734 484 380 292 348 361 307 213 32 0 0 0 2 0 3 0 0 0 0 0 0 0 0 0 0 0 0 0 0 0 0 0 0 0 0 0 0 0 0 0 0 0 0 0 0
0 0 0 0 0 0 0 4 33 153 248 306 314 291 337 502 611 514 529 556 311 244 267 296 234 181 159 88 1 0 0 1 0 0 0 0 0 1 1 0 0 0 0 0 0 0 0 0 0 0 0 0 0 0 0 0 0 0 0 0 0 0 0
0 0 0 0 0 0 0 4 21 32 85 272 300 314 274 314 328 446 509 534 263 196 225 298 244 185 148 127 0 0 6 1 0 0 3 1 2 2 5 2 1 5 2 0 0 0 0 0 0 0 0 0 0 0 0 0 0 0 0 0 0 0 0
0 0 0 0 0 0 0 0 0 5 33 102 223 247 292 208 236 252 352 321 206 169 190 203 202 188 150 158 5 12 16 2 1 0 0 0 0 2 7 12 6 1 0 0 0 0 0 0 0 0 0 0 0 0 0 0 0 0 0 0 0 0 0
0 0 0 0 19 12 10 16 13 14 41 98 138 193 106 120 136 96 154 0 82 226 233 235 209 185 156 133 72 19 27 0 0 0 0 0 1 6 11 12 2 0 0 0 0 0 0 0 0 0 0 0 0 0 0 0 0 0 0 0 0 0 0
0 0 0 22 55 68 58 17 31 20 23 36 72 110 138 100 94 7 0 0 8 211 249 252 224 186 154 92 26 1 5 41 2 0 0 0 0 2 9 2 0 0 0 0 0 0 0 0 0 0 0 0 0 0 0 0 0 0 0 0 0 0 0
6 6 1 21 75 57 44 50 74 82 72 70 126 145 235 342 66 0 0 0 0 0 0 71 119 100 54 21 1 0 0 0 0 0 0 0 3 9 5 1 0 0 0 0 0 0 0 0 0 0 0 0 0 0 0 0 0 0 0 0 0 0 0
0 24 30 32 74 106 73 67 38 79 56 31 127 314 228 173 106 50 0 0 0 60 91 90 0 4 2 0 0 0 0 4 10 5 4 5 6 4 2 0 0 0 0 0 0 0 0 0 0 0 0 0 0 0 0 0 0 0 0 0 0 0 0
18 12 16 24 38 73 125 135 134 91 112 174 271 393 183 34 0 0 0 0 0 0 38 2 12 2 0 0 0 3 5 11 19 21 16 11 8 5 5 6 3 0 0 0 0 0 0 0 0 0 0 0 0 0 0 0 0 0 0 0 0 0 1
0 0 2 10 12 50 117 161 166 111 84 164 299 366 204 36 0 0 0 0 0 0 4 7 0 1 1 0 4 7 10 11 17 23 20 16 12 7 10 9 1 0 0 0 0 0 0 0 0 0 0 0 0 0 0 0 0 0 2 3 3 3 3

ECMWFFLT1_con_mucape_015.txt.gz
CAPE
0 0 0 0 0 0 0 0 0 0 0 0 0 0 0 0 0 0 0 0 0 0 0 0 0 0 0 0 0 0 24 52 28 38 43 56 96 121 246 309 405 347 330 311 445 244 40 6 0 366 605 546 621 215 178 117 18 172 370 934 670 396 282
0 0 0 0 0 0 0 0 0 0 0 0 0 0 0 0 0 0 0 0 0 0 0 0 0 0 0 0 0 0 0 0 12 15 3 12 20 212 160 146 261 266 285 276 204 80 0 0 0 0 4 508 874 600 270 208 92 9 0 0 421 552 270
0 0 0 0 0 0 0 0 0 0 0 0 0 0 0 0 0 0 0 0 0 0 0 0 0 0 0 0 0 0 0 0 0 0 0 0 0 0 229 370 403 287 165 53 43 92 61 14 0 2 0 0 0 0 424 294 216 3 0 0 15 220 335
0 0 0 0 0 0 0 0 0 0 0 0 0 0 0 0 0 0 0 0 0 0 0 0 0 0 0 0 0 0 0 0 0 0 0 0 0 0 0 0 0 0 0 0 0 0 0 0 0 0 0 0 0 0 1 114 226 15 0 0 3 49 50
0 0 0 0 0 0 0 0 0 0 0 0 0 0 0 0 0 0 0 0 0 0 0 0 0 0 0 0 0 0 0 0 0 0 0 0 0 0 0 0 0 0 0 0 0 0 0 0 0 0 0 0 0 0 0 0 0 0 0 0 0 0 0
0 0 0 0 0 0 0 0 0 0 0 0 0 0 0 0 0 0 0 0 0 0 0 0 0 0 0 0 0 0 0 0 0 0 0 0 0 0 0 0 0 0 0 0 0 0 0 0 0 0 0 0 0 0 0 0 0 0 0 0 0 0 0
0 0 0 0 0 0 0 0 0 0 0 0 0 0 0 0 0 0 0 0 0 0 0 0 0 0 0 0 0 0 0 0 0 0 0 0 0 0 0 0 0 0 0 0 0 0 0 0 0 0 0 0 0 0 0 0 0 0 0 0 0 0 0
0 0 0 0 0 0 0 0 0 0 0 0 0 0 0 0 0 0 0 0 0 0 0 0 0 0 0 0 0 0 0 0 0 0 0 0 0 0 0 0 0 0 0 0 0 0 0 0 0 0 0 0 0 0 0 0 0 0 0 0 0 0 0
8 0 0 2 0 2 1 0 0 0 0 0 0 0 0 0 0 0 0 0 0 0 0 0 0 0 0 0 0 0 0 0 0 0 0 0 0 0 0 0 0 0 0 0 0 0 0 0 0 0 0 0 0 0 0 0 0 0 0 0 0 0 0
10 3 2 5 6 5 7 0 0 0 0 0 0 0 0 0 0 0 0 0 0 0 0 0 0 0 0 0 0 0 0 0 0 0 0 0 0 0 0 0 0 0 0 0 0 0 0 0 0 0 0 0 0 0 0 0 0 0 0 0 0 0 0
8 11 9 15 60 24 65 17 2 0 0 0 0 0 0 0 0 0 0 0 0 0 0 0 0 0 0 0 0 0 0 0 0 0 0 0 0 0 0 0 0 0 0 0 0 0 0 0 0 0 0 0 0 0 0 0 0 0 0 0 0 0 0
11 19 38 10 286 123 89 120 100 6 0 0 0 0 0 0 0 0 0 0 0 0 0 0 0 0 0 0 0 0 0 0 0 0 0 0 0 0 0 0 0 0 0 0 0 0 0 0 0 0 0 0 0 0 0 0 0 0 0 0 0 0 0
7 2 196 13 206 222 120 134 160 36 1 0 0 0 0 0 0 0 0 0 0 0 0 0 0 0 0 0 0 0 0 0 0 0 0 0 0 0 0 0 0 0 0 0 0 0 0 0 0 0 0 0 0 0 0 0 0 0 0 0 0 0 0
222 108 508 45 35 343 250 163 172 106 23 0 0 0 0 0 0 0 0 0 0 0 0 0 0 0 0 0 0 0 0 0 0 0 0 0 0 0 0 0 0 0 0 0 0 0 0 0 0 0 0 0 0 0 0 0 0 0 0 0 0 0 0
0 27 413 502 338 444 304 220 186 200 145 119 0 0 0 0 1 0 0 0 0 0 0 0 0 0 0 0 0 0 0 0 0 0 0 0 0 0 0 0 0 0 0 0 0 0 0 0 0 0 0 0 0 0 0 0 0 0 0 0 0 0 0
89 82 596 706 722 490 482 525 554 331 290 201 191 188 185 179 173 178 170 68 0 0 0 0 0 0 0 0 0 0 0 0 0 0 0 0 0 0 0 0 0 0 0 0 0 0 0 0 0 0 0 0 0 0 0 0 0 0 0 0 0 0 0
301 564 573 563 756 702 496 520 580 553 518 444 351 240 230 260 281 270 245 211 160 21 0 0 0 0 0 0 0 0 0 0 0 0 0 0 0 0 0 0 0 0 0 0 0 0 0 0 0 0 0 0 0 0 0 0 0 0 0 0 0 0 0
88 216 30 244 679 842 649 480 498 420 485 469 448 463 433 394 388 368 362 334 290 240 198 159 43 0 0 0 1 0 0 0 0 0 0 0 0 0 0 0 0 0 0 0 0 0 0 0 0 0 0 0 0 0 0 0 0 0 0 0 0 0 0
357 187 227 247 558 853 662 550 470 430 351 393 359 331 355 366 365 363 352 347 283 242 203 173 166 0 0 0 0 20 20 0 0 0 0 0 0 0 0 0 0 0 0 0 0 0 0 0 0 0 0 0 0 0 0 0 0 0 0 0 0 0 0
329 309 676 722 752 855 633 484 474 512 518 461 351 329 257 102 20 211 313 332 310 211 3 0 0 203 221 193 168 157 147 131 0 0 0 0 0 0 0 0 0 0 0 0 0 0 0 0 0 0 0 0 0 0 0 0 0 0 0 0 0 0 0
836 1088 1116 1006 768 599 529 381 28 357 369 364 320 260 268 318 299 211 221 60 26 11 6 13 36 187 179 189 187 209 216 210 179 41 0 0 0 0 0 4 0 0 0 0 0 0 0 0 0 0 0 0 0 0 0 0 0 0 0 0 0 0 0
936 996 867 867 722 632 626 582 527 481 484 418 317 156 156 272 315 316 292 144 66 30 6 9 18 185 173 147 141 170 19 135 180 142 4 0 0 0 8 16 0 0 0 0 0 0 0 0 0 0 0 0 0 0 0 0 0 0 0 0 0 0 0
459 616 719 966 936 769 561 420 366 380 468 475 435 373 314 305 301 314 313 286 267 254 0 10 54 198 216 200 140 136 140 142 148 138 124 117 0 2 26 0 0 10 4 0 0 0 0 0 0 0 0 0 0 0 0 0 0 0 0 0 0 0 0
0 0 0 26 518 732 600 496 423 425 529 691 754 750 685 632 546 484 498 427 384 368 330 307 280 264 236 183 202 168 6 102 130 124 109 98 0 33 44 2 0 3 4 1 0 0 0 0 0 0 0 0 0 0 0 0 0 0 0 0 0 0 0
0 0 56 140 270 452 492 619 704 678 752 809 791 757 746 766 731 647 556 600 620 582 484 410 335 276 260 261 201 2 0 0 114 123 126 27 71 25 0 0 0 2 8 7 0 0 0 0 0 0 0 0 0 0 0 0 0 0 0 0 0 0 0
0 0 0 0 0 0 66 146 204 166 577 876 864 806 783 802 761 686 723 726 688 643 632 623 596 540 440 354 262 208 11 0 120 100 99 27 0 0 0 0 2 4 10 10 2 3 0 0 0 0 0 0 0 0 0 0 0 0 0 0 0 0 0
0 0 0 0 0 0 0 0 7 60 134 288 310 633 752 648 554 491 541 641 699 739 740 746 730 652 636 533 333 211 117 12 0 49 26 1 0 1 1 4 1 0 6 13 12 1 3 0 0 0 0 0 0 0 0 0 0 0 0 0 0 0 0
0 0 0 0 0 0 0 0 0 0 31 126 128 204 276 294 344 471 700 763 787 767 720 602 495 434 457 481 395 252 36 0 0 0 0 4 1 0 0 0 2 10 4 9 16 3 2 0 0 0 0 0 0 0 0 0 0 0 0 0 0 0 0
0 0 0 0 0 0 0 0 0 0 0 1 27 82 83 195 319 377 441 562 574 570 508 444 383 346 388 426 428 226 224 215 101 0 1 3 0 4 0 3 8 16 13 0 4 6 2 2 1 0 0 0 0 0 0 0 0 0 0 0 0 0 0
0 0 0 0 0 0 0 0 0 0 0 0 0 4 4 18 94 254 335 419 440 455 441 393 348 309 285 285 337 308 205 107 0 0 0 1 0 0 4 1 12 11 2 1 3 8 9 8 2 0 0 0 0 0 0 0 0 0 0 0 0 0 0
0 0 0 0 0 0 0 0 0 0 0 0 0 0 0 0 0 0 84 348 412 443 458 438 401 352 312 283 276 223 170 145 0 0 0 0 1 0 0 0 1 6 0 0 4 12 11 3 0 0 0 0 0 0 0 0 0 0 0 0 0 0 0
0 0 0 0 0 0 0 0 0 0 0 0 0 0 0 0 0 0 0 40 324 430 484 472 403 354 312 296 291 273 192 183 11 0 3 0 0 0 0 0 0 0 1 2 2 5 2 0 1 0 0 0 0 0 0 0 0 0 0 0 0 0 0
0 0 0 0 0 0 0 0 0 0 0 0 0 0 0 0 0 0 0 8 185 312 391 390 345 306 293 295 287 292 208 138 62 0 0 13 0 0 0 0 1 5 4 4 8 11 9 7 2 0 0 0 0 0 0 0 0 0 0 0 0 0 0
0 0 0 0 0 0 0 0 0 0 0 0 0 0 0 0 0 0 0 0 151 251 317 358 323 309 309 319 329 292 174 61 22 10 1 0 1 0 0 5 8 5 3 3 6 4 3 0 0 0 0 0 0 0 0 0 0 0 0 0 0 0 0
0 0 0 0 0 0 0 0 0 0 0 0 0 0 0 0 0 0 0 0 0 169 214 252 290 261 282 313 327 270 19 0 1 10 0 4 5 4 3 2 1 1 6 14 12 4 0 0 0 0 0 0 0 0 0 0 0 0 0 0 0 0 0
0 0 0 0 0 0 0 0 0 0 0 0 0 0 0 0 0 0 0 0 0 70 152 163 188 242 249 273 273 249 71 0 0 0 0 1 1 4 1 0 0 12 12 10 5 2 2 0 2 4 0 0 0 0 0 0 0 0 0 0 0 0 0
0 0 0 0 0 0 0 0 0 0 0 0 0 0 0 0 0 0 0 0 0 0 0 0 0 115 156 169 24 130 46 1 0 0 0 2 0 0 0 0 2 1 0 7 12 9 6 4 2 0 0 0 0 0 0 0 0 0 0 0 0 2 4

ECMWFFLT1_con_mucape_021.txt.gz
CAPE
0 0 0 0 0 0 0 0 0 0 0 0 0 0 0 0 0 0 412 573 552 18 0 0 0 0 0 347 526 585 621 636 600 540 618 582 464 393 501 501 474 430 342 215 184 29 19 0 2 0 85 274 139 54 131 228 210 172 131 81 504 545 181
0 0 0 0 0 0 0 0 0 0 0 0 0 0 0 0 0 0 113 454 0 0 0 0 0 0 0 0 0 0 5 0 436 515 560 493 384 406 352 498 490 407 362 360 314 252 173 0 0 0 0 20 0 0 46 75 0 0 0 0 0 1 0
0 0 0 0 0 0 0 0 0 0 0 0 0 0 0 0 0 0 0 0 0 0 0 0 0 0 0 0 0 0 0 0 33 393 276 267 373 430 576 607 520 445 292 171 167 151 0 0 0 0 0 0 0 0 0 0 0 0 0 0 0 0 0
0 0 0 0 0 0 0 0 0 0 0 0 0 0 0 0 0 0 0 0 0 0 0 0 0 0 0 0 0 0 0 0 0 0 0 49 299 353 408 512 520 272 108 91 0 12 0 0 0 0 0 0 0 0 0 0 0 0 0 0 0 0 0
0 0 0 0 0 0 0 0 0 0 0 0 0 0 0 0 0 0 0 0 0 0 0 0 0 0 0 0 0 0 0 0 0 0 0 0 22 108 97 108 142 2 0 0 0 0 0 0 0 0 0 0 0 0 0 0 0 0 0 0 0 0 0
0 0 0 0 0 0 0 0 0 0 0 0 0 0 0 0 0 0 0 0 0 0 0 0 0 0 0 0 0 0 0 0 0 0 0 0 0 0 0 0 0 0 0 0 0 0 0 0 0 0 0 0 0 0 0 0 0 0 0 0 0 0 0
0 0 0 0 0 0 0 0 0 0 0 0 0 0 0 0 0 0 0 0 0 0 0 0 0 0 0 0 0 0 0 0 0 0 0 0 0 0 0 0 0 0 0 0 0 0 0 0 0 0 0 0 0 0 0 0 0 0 0 0 0 0 0
0 0 0 0 0 0 0 0 0 0 0 0 0 0 0 0 0 0 0 0 0 0 0 0 0 0 0 0 0 0 0 0 0 0 0 0 0 0 0 0 0 0 0 0 0 0 0 0 0 0 0 0 0 0 0 0 0 0 0 0 0 0 0
0 0 0 0 0 0 0 0 0 0 0 0 0 0 0 0 0 0 0 0 0 0 0 0 0 0 0 0 0 0 0 0 0 0 0 0 0 0 0 0 0 0 0 0 0 0 0 0 0 0 0 0 0 0 0 0 0 0 0 0 0 0 0
0 0 0 0 0 0 0 0 0 0 0 0 0 0 0 0 0 0 0 0 0 0 0 0 0 0 0 0 0 0 0 0 0 0 0 0 0 0 0 0 0 0 0 0 0 0 0 0 0 0 0 0 0 0 0 0 0 0 0 0 0 0 0
0 0 0 0 0 0 0 0 0 0 0 0 0 0 0 0 0 0 0 0 0 0 0 0 0 0 0 0 0 0 0 0 0 0 0 0 0 0 0 0 0 0 0 0 0 0 0 0 0 0 0 0 0 0 0 0 0 0 0 0 0 0 0
10 0 0 0 0 0 0 0 0 0 0 0 0 0 0 0 0 0 0 0 0 0 0 0 0 0 0 0 0 0 0 0 0 0 0 0 0 0 0 0 0 0 0 0 0 0 0 0 0 0 0 0 0 0 0 0 0 0 0 0 0 0 0
7 2 3 0 0 0 0 0 0 0 0 0 0 0 0 0 0 0 0 0 0 0 0 0 0 0 0 0 0 0 0 0 0 0 0 0 0 0 0 0 0 0 0 0 0 0 0 0 0 0 0 0 0 0 0 0 0 0 0 0 0 0 0
38 10 7 0 0 0 0 0 0 0 0 0 0 0 0 0 0 0 0 0 0 0 0 0 0 0 0 0 0 0 0 0 0 0 0 0 0 0 0 0 0 0 0 0 0 0 0 0 0 0 0 0 0 0 0 0 0 0 0 0 0 0 0
48 32 8 0 0 0 0 0 0 0 0 0 0 0 0 0 0 0 0 0 0 0 0 0 0 0 0 0 0 0 0 0 0 0 0 0 0 0 0 0 0 0 0 0 0 0 0 0 0 0 0 0 0 0 0 0 0 0 0 0 0 0 0
93 32 2 1 0 0 0 0 0 0 0 0 0 0 0 0 0 0 0 0 0 0 1 2 0 0 0 0 0 0 0 0 0 0 0 0 0 0 0 0 0 0 0 0 0 0 0 0 0 0 0 0 0 0 0 0 0 0 0 0 0 0 0
178 73 26 0 0 0 0 0 0 0 0 0 0 0 4 6 4 7 7 6 8 11 7 1 0 0 0 0 0 0 0 0 0 0 0 0 0 0 0 0 0 0 0 0 0 0 0 0 0 0 0 0 0 0 0 0 0 0 0 0 0 0 0
136 87 26 3 13 10 0 0 0 0 0 0 0 2 4 1 1 8 15 17 10 10 4 2 0 0 1 1 0 0 0 0 0 0 0 0 0 0 0 0 0 0 0 0 0 0 0 0 0 0 0 0 0 0 0 0 0 0 0 0 0 0 0
114 71 32 29 27 26 11 0 2 1 0 0 0 52 0 0 0 3 4 0 2 1 189 194 181 161 166 37 9 7 0 0 0 16 0 0 0 0 0 0 0 0 0 0 0 0 0 0 0 0 0 0 0 0 0 0 0 0 0 0 0 0 0
70 91 80 49 40 20 10 2 0 0 0 0 30 334 318 254 141 53 214 40 0 0 136 280 296 288 228 191 144 5 10 6 5 6 4 6 100 88 26 0 0 0 0 0 0 0 0 0 0 0 0 0 0 0 0 0 0 0 0 0 0 0 0
447 107 92 80 177 259 423 389 91 2 0 0 317 298 312 328 0 0 205 0 0 56 263 300 361 373 328 285 260 205 9 11 21 11 139 176 70 137 120 64 0 0 0 0 0 0 1 2 1 0 0 0 0 0 0 0 0 0 0 0 0 0 0
524 453 398 333 444 394 398 404 63 177 379 405 397 259 0 44 291 43 0 0 4 43 114 364 406 440 433 397 346 282 193 18 16 7 3 95 184 158 148 115 86 0 0 28 14 12 6 8 9 5 1 0 0 0 0 0 0 0 0 0 0 0 0
604 413 310 321 265 0 0 0 0 438 211 1 315 334 0 111 321 15 10 18 12 172 331 392 447 429 411 415 393 340 268 108 23 15 4 54 203 190 193 183 156 125 92 59 30 24 19 15 9 8 8 3 0 0 0 0 0 0 0 0 0 0 0
486 416 334 266 286 310 0 0 241 0 0 0 0 27 54 31 24 17 149 221 231 271 262 336 376 387 377 347 325 316 273 257 245 35 15 224 246 216 224 237 224 188 140 91 51 29 12 17 17 12 6 2 0 0 0 0 0 0 0 0 0 0 0
493 437 398 310 323 359 307 273 98 0 235 288 0 15 322 360 194 49 282 375 594 555 731 689 635 637 616 606 574 556 519 457 397 341 334 332 327 304 295 271 229 185 147 101 67 40 30 22 14 10 10 7 4 0 0 0 0 0 0 0 0 0 0
534 515 499 526 686 843 942 901 764 653 530 463 398 344 336 397 441 427 426 536 650 735 736 665 618 596 587 629 627 653 634 579 546 540 518 501 461 406 342 274 206 168 133 76 61 47 27 20 18 10 6 0 1 0 0 0 0 0 0 0 0 0 0
976 1000 1068 1135 1085 805 475 398 491 513 411 279 275 268 270 344 506 564 605 585 597 639 604 507 432 434 521 551 549 537 545 595 653 673 663 606 511 410 359 303 241 169 108 74 58 40 28 11 5 4 10 10 0 0 0 0 0 0 0 0 0 0 0
146 184 143 0 0 0 6 174 252 301 260 173 77 130 190 213 324 324 321 361 444 518 530 476 416 431 474 472 485 436 400 384 388 396 440 449 412 328 313 272 232 152 99 67 57 34 29 28 5 5 8 4 0 0 0 0 0 0 0 0 0 0 0
0 0 0 0 0 0 0 40 174 164 54 0 0 0 0 0 0 0 34 78 233 240 265 326 441 501 522 486 392 278 223 223 276 356 408 416 373 330 282 256 197 111 69 57 50 38 1 0 2 2 4 3 0 0 0 0 0 0 0 0 0 0 0
0 0 0 0 0 0 0 0 0 0 0 0 0 0 0 0 0 0 0 0 0 144 222 274 358 397 429 412 322 235 195 187 212 244 276 283 269 270 254 230 190 103 78 69 54 23 14 4 6 6 7 1 0 0 0 0 0 0 0 0 0 0 0
0 0 0 0 0 0 0 0 0 0 0 0 0 0 0 0 0 0 0 0 0 0 0 156 227 292 330 323 287 250 191 140 130 127 145 150 168 184 159 130 19 0 20 19 45 27 4 8 9 8 2 0 0 0 0 0 0 0 0 0 0 0 0
0 0 0 0 0 0 0 0 0 0 0 0 0 0 0 0 0 0 0 0 0 0 0 54 171 211 244 266 277 275 242 150 41 0 0 0 103 112 116 107 0 0 5 11 12 8 8 0 1 1 0 0 0 0 0 0 0 0 0 0 0 0 0
0 0 0 0 0 0 0 0 0 0 0 0 0 0 0 0 0 0 0 0 0 0 0 0 22 127 162 207 235 253 248 200 139 107 96 4 101 15 0 0 17 37 11 2 2 2 3 3 1 0 0 0 0 0 0 0 0 0 0 0 0 0 0
0 0 0 0 0 0 0 0 0 0 0 0 0 0 0 0 0 0 0 0 0 0 0 0 0 54 138 152 180 212 233 207 169 139 126 45 36 36 59 32 3 1 0 0 2 2 0 0 0 0 0 0 0 0 0 0 0 0 0 0 0 0 0
0 0 0 0 0 0 0 0 0 0 0 0 0 0 0 0 0 0 0 0 0 0 0 0 7 124 150 173 201 206 198 186 146 123 0 76 55 47 15 2 3 12 2 0 0 0 0 0 1 0 0 0 0 0 0 0 0 0 0 0 0 0 0
0 0 0 0 0 0 0 0 0 0 0 0 0 0 0 0 0 0 0 0 0 0 0 10 116 156 183 216 201 210 180 152 135 132 26 47 42 18 6 7 8 0 0 0 0 0 1 2 1 1 1 0 0 0 0 0 0 0 0 0 0 0 0
0 0 0 0 0 0 0 0 0 0 0 0 0 0 0 0 0 0 0 0 0 0 0 2 105 145 187 213 228 186 179 152 139 138 101 62 10 6 7 3 1 1 0 0 0 0 1 2 1 0 0 0 0 0 0 0 0 0 0 0 0 0 0

ECMWFFLT1_con_mucape_024.txt.gz
CAPE
0 0 0 0 0 0 0 0 0 0 0 0 197 476 442 309 196 350 424 454 233 142 132 9 28 236 506 579 559 605 603 550 79 450 466 500 496 439 483 446 154 0 0 0 0 0 0 117 0 0 0 168 62 103 59 0 0 0 0 0 0 0 0
0 0 0 0 0 0 0 0 0 0 0 0 0 0 0 0 50 365 484 375 195 120 0 0 0 0 0 102 406 384 362 409 328 372 410 445 358 335 383 344 316 302 279 275 53 0 0 0 0 0 0 0 0 0 0 0 0 0 0 0 0 0 0
0 0 0 0 0 0 0 0 0 0 0 0 0 0 0 0 46 325 462 231 107 0 0 0 0 0 0 0 0 0 246 331 362 372 334 334 336 313 287 323 354 335 281 246 190 40 4 3 1 0 0 0 0 0 0 0 0 0 0 0 0 0 0
0 0 0 0 0 0 0 0 0 0 0 0 0 0 0 0 0 53 44 0 0 0 0 0 0 0 0 0 0 0 0 0 0 34 216 290 363 388 402 443 361 250 33 102 0 0 0 0 0 0 0 0 0 0 0 0 0 0 0 0 0 0 0
0 0 0 0 0 0 0 0 0 0 0 0 0 0 0 0 0 0 0 0 0 0 0 0 0 0 0 0 0 0 0 0 0 0 0 6 194 224 261 215 27 0 0 0 0 0 0 0 0 0 0 0 0 0 0 0 0 0 0 0 0 0 0
0 0 0 0 0 0 0 0 0 0 0 0 0 0 0 0 0 0 0 0 0 0 0 0 0 0 0 0 0 0 0 0 0 0 0 0 0 0 0 0 0 0 0 0 0 0 0 0 0 0 0 0 0 0 0 0 0 0 0 0 0 0 0
0 0 0 0 0 0 0 0 0 0 0 0 0 0 0 0 0 0 0 0 0 0 0 0 0 0 0 0 0 0 0 0 0 0 0 0 0 0 0 0 0 0 0 0 0 0 0 0 0 0 0 0 0 0 0 0 0 0 0 0 0 0 0
0 2 24 0 0 0 0 0 0 0 0 0 0 0 0 0 0 0 0 0 0 0 0 0 0 0 0 0 0 0 0 0 0 0 0 0 0 0 0 0 0 0 0 0 0 0 0 0 0 0 0 0 0 0 0 0 0 0 0 0 0 0 0
13 26 7 0 0 0 0 0 0 0 0 0 0 0 0 0 0 0 0 0 0 0 0 0 0 0 0 0 0 0 0 0 0 0 0 0 0 0 0 0 0 0 0 0 0 0 0 0 0 0 0 0 0 0 0 0 0 0 0 0 0 0 0
49 50 10 0 0 0 0 0 0 0 0 0 0 0 0 0 0 0 0 0 0 0 0 0 0 0 0 0 0 0 0 0 0 0 0 0 0 0 0 0 0 0 0 0 0 0 0 0 0 0 0 0 0 0 0 0 0 0 0 0 0 0 0
19 34 5 0 0 0 0 0 0 0 0 0 0 0 0 0 0 0 0 0 0 0 0 0 0 0 0 0 0 0 0 0 0 0 0 0 0 0 0 0 0 0 0 0 0 0 0 0 0 0 0 0 0 0 0 0 0 0 0 0 0 0 0
9 14 19 0 0 0 0 0 0 0 0 0 0 0 0 0 0 0 0 0 0 0 0 0 0 0 0 0 0 0 0 0 0 0 0 0 0 0 0 0 0 0 0 0 0 0 0 0 0 0 0 0 0 0 0 0 0 0 0 0 0 0 0
0 23 28 18 0 0 0 0 0 0 0 0 0 0 0 0 0 0 0 0 0 0 0 0 0 0 0 0 0 0 0 0 0 0 0 0 0 0 0 0 0 0 0 0 0 0 0 0 0 0 0 0 0 0 0 0 0 0 0 0 0 0 0
0 0 17 26 9 0 0 0 0 0 0 0 0 0 0 0 0 0 0 0 0 0 0 0 0 0 0 0 0 0 0 0 0 0 0 0 0 0 0 0 0 0 0 0 0 0 0 0 0 0 0 0 0 0 0 0 0 0 0 0 0 0 0
142 96 63 58 40 29 15 0 0 0 0 0 0 0 0 0 0 0 0 0 0 0 0 0 0 0 0 0 0 0 0 0 0 0 0 0 0 0 0 0 0 0 0 0 0 0 0 0 0 0 0 0 0 0 0 0 0 0 0 0 0 0 0
0 33 58 65 66 59 14 0 0 0 0 0 0 0 0 0 0 0 0 0 0 0 0 0 0 0 0 0 0 0 0 0 0 0 0 0 0 0 0 0 0 0 0 0 0 0 0 0 0 0 0 0 0 0 0 0 0 0 0 0 0 0 0
0 0 4 75 94 94 34 0 0 0 0 0 0 0 0 0 0 0 0 0 0 0 0 0 0 0 0 0 0 0 0 0 0 0 0 0 0 0 0 0 0 0 0 0 0 0 0 0 0 0 0 0 0 0 0 0 0 0 0 0 0 0 0
0 0 10 76 112 76 37 6 1 0 0 0 0 80 111 88 5 0 0 0 0 0 0 0 0 0 0 0 0 0 0 0 0 0 0 0 0 0 0 0 0 0 0 0 0 0 0 0 0 0 0 0 0 0 0 0 0 0 0 0 0 0 0
0 0 64 108 140 68 8 0 0 0 0 0 14 156 177 157 10 0 0 0 2 1 0 1 3 24 0 0 0 0 2 0 45 0 0 0 0 0 0 0 0 0 0 0 0 0 0 0 0 0 0 0 0 0 0 0 0 0 0 0 0 0 0
330 245 214 162 126 52 8 0 0 0 0 0 0 12 59 206 21 6 11 9 7 9 11 12 6 0 0 0 0 0 0 0 0 2 0 0 0 0 0 0 0 0 0 0 0 0 0 1 0 8 8 4 2 1 1 0 0 0 0 0 0 0 0
488 319 229 176 129 52 6 0 0 0 0 0 0 0 169 223 244 42 0 1 16 28 28 10 6 0 0 0 0 188 0 14 6 2 0 0 1 0 0 0 0 10 3 4 2 8 0 6 4 17 4 8 6 6 5 1 0 0 0 0 0 0 0
607 427 350 163 88 23 2 0 0 0 0 5 15 1 2 0 45 198 288 276 248 199 153 120 0 0 27 219 274 324 306 219 165 166 80 12 8 6 2 0 0 0 0 0 2 0 1 4 11 13 9 10 15 16 9 6 2 0 0 0 0 0 0
599 531 437 223 71 31 106 4 0 0 0 79 16 10 192 346 295 208 294 330 286 0 0 0 0 0 0 86 267 298 322 351 356 317 269 221 135 3 1 0 0 6 7 0 0 10 10 17 8 21 18 20 19 16 14 9 7 6 0 0 0 0 0
643 630 591 548 500 485 444 402 464 450 440 347 0 17 6 36 32 3 5 24 9 0 0 2 12 10 226 262 79 155 250 254 224 252 274 252 224 21 0 0 0 0 0 0 0 0 15 22 28 19 16 18 17 7 10 15 4 9 0 0 0 0 0
578 608 628 630 587 534 450 311 202 38 27 9 1 13 47 11 12 6 1 2 14 0 0 118 121 264 394 461 479 479 453 413 376 344 326 311 308 254 162 87 83 136 177 154 84 26 0 12 15 10 18 18 12 13 6 5 5 9 6 0 0 0 0
593 543 510 539 519 482 457 397 328 330 306 160 0 1 8 10 2 0 8 18 19 32 315 487 410 506 492 488 508 541 557 560 548 554 536 478 391 357 353 332 307 270 239 185 160 109 50 34 31 15 18 21 19 20 19 19 8 6 3 0 0 0 0
564 562 566 539 494 465 434 419 404 341 310 211 0 317 246 306 339 322 329 392 384 395 437 431 420 406 397 341 370 390 392 387 398 418 480 516 571 558 529 491 433 342 267 185 144 122 84 51 33 21 19 15 12 7 5 7 7 2 1 0 0 0 0
754 798 761 677 651 677 773 822 662 480 337 366 391 294 364 306 399 456 487 469 476 463 450 451 442 405 325 317 331 314 278 267 261 278 307 319 320 326 326 313 313 303 235 168 118 90 63 45 27 36 38 18 15 13 11 5 1 0 0 0 0 0 0
580 795 880 904 852 762 571 226 140 175 211 216 172 153 237 282 300 329 309 344 341 348 300 125 130 282 324 395 366 316 250 187 158 144 166 194 240 262 266 261 246 237 208 159 111 43 31 20 20 24 11 17 12 6 6 0 0 0 0 0 0 0 0
0 130 163 105 54 127 116 108 144 183 195 176 100 0 0 0 0 0 0 0 0 0 0 0 0 71 236 313 363 295 182 132 104 100 101 104 122 136 158 173 183 173 148 121 45 15 6 12 16 6 4 8 6 3 2 0 0 0 0 0 0 0 0
0 0 0 0 0 16 0 0 0 0 0 0 0 0 0 0 0 0 0 0 0 0 0 0 0 0 14 157 208 216 176 135 117 5 0 0 0 0 0 0 0 0 0 8 7 2 1 7 8 18 10 7 2 1 0 0 0 0 0 0 0 0 0
0 0 0 0 0 0 0 0 0 0 0 0 0 0 0 0 0 0 0 0 0 0 0 0 0 0 0 72 91 156 148 133 130 29 0 0 0 0 0 0 0 0 0 0 3 3 5 7 16 18 14 1 2 4 2 0 0 0 0 0 0 0 0
0 0 0 0 0 0 0 0 0 0 0 0 0 0 0 0 0 0 0 0 0 0 0 0 0 0 0 0 5 128 151 144 141 113 49 0 0 0 0 0 0 11 8 2 3 4 5 8 10 3 3 5 1 0 0 0 0 0 0 0 0 0 0
0 0 0 0 0 0 0 0 0 0 0 0 0 0 0 0 0 0 0 0 0 0 0 0 0 0 0 0 0 18 138 157 164 133 89 0 0 0 0 0 8 2 1 0 0 1 0 0 0 0 0 0 0 0 0 0 0 0 0 0 0 0 0
10 12 10 10 2 0 0 0 0 0 0 0 0 0 0 0 0 0 0 0 0 0 0 0 0 0 0 0 0 0 134 144 134 84 0 0 0 23 4 9 2 0 0 0 1 3 10 6 2 0 0 0 0 0 0 0 0 0 0 0 0 0 0
6 8 9 13 13 9 5 0 0 0 0 0 0 0 0 0 0 0 0 0 0 0 0 0 0 0 0 0 0 56 126 116 0 0 0 0 34 4 1 2 1 2 3 3 3 3 0 0 0 1 1 0 0 0 0 0 0 0 0 0 0 0 0
0 0 0 0 1 9 1 4 0 0 0 0 0 0 0 0 0 0 0 0 0 0 0 0 0 0 0 0 0 0 0 59 0 0 21 15 1 1 3 5 4 4 6 3 1 1 1 1 0 0 0 0 0 0 0 0 0 0 0 0 0 0 0

ECMWFFLT1_con_mucape_027.txt.gz
CAPE
674 314 199 66 0 0 0 0 0 7 9 376 456 532 683 895 684 432 466 715 732 485 414 466 396 504 542 658 606 864 781 880 910 861 666 637 933 253 254 266 283 661 952 882 1041 999 624 79 0 0 0 0 0 0 0 0 0 0 0 0 0 0 0
433 200 56 0 0 0 0 0 0 0 3 1 103 133 243 692 857 916 846 934 908 705 418 474 449 378 544 542 697 856 913 725 566 572 551 456 969 838 683 726 890 942 826 846 754 696 692 59 0 0 0 0 0 0 0 0 0 0 0 0 0 0 0
260 121 26 0 0 0 0 0 0 0 0 8 8 14 135 308 564 599 565 577 608 343 209 302 240 306 283 514 569 666 624 495 338 512 566 448 677 768 862 970 922 715 742 688 521 318 297 89 7 0 4 4 2 0 0 0 0 0 0 0 0 0 0
350 173 26 0 0 0 0 0 1 0 0 0 10 2 5 36 166 425 279 162 210 136 128 242 433 254 314 314 182 301 448 489 247 161 362 348 337 546 769 874 808 695 807 834 539 288 86 6 2 1 0 0 0 0 0 0 0 0 0 0 0 0 0
367 292 171 24 4 0 2 0 0 2 0 0 10 19 0 0 0 1 0 7 26 113 121 78 53 66 26 15 44 162 184 217 221 243 244 175 268 359 286 125 26 30 55 54 8 33 44 8 0 0 0 0 0 0 0 0 0 0 0 0 0 0 0
398 295 150 45 1 0 0 0 0 6 13 37 1 0 0 0 0 0 1 5 4 3 0 1 0 0 0 0 7 19 87 235 216 210 276 363 322 187 0 0 0 0 0 0 0 0 1 1 0 0 0 0 0 0 0 0 0 0 0 0 0 0 0
375 281 157 53 1 7 8 2 0 2 18 26 0 0 0 0 0 0 0 0 0 0 0 0 0 0 0 0 1 7 2 0 0 0 0 0 0 0 0 0 0 0 0 0 0 0 0 0 0 0 0 0 0 0 0 0 0 0 0 0 0 0 0
602 439 682 503 16 0 0 0 0 0 0 0 0 0 0 0 0 0 0 0 0 0 0 0 0 0 0 0 0 0 0 0 0 0 0 0 0 0 0 0 0 0 0 0 0 0 0 0 0 0 0 0 0 0 0 0 0 0 0 0 0 0 0
435 562 260 0 0 0 0 1 0 0 0 0 0 0 0 0 0 0 0 0 0 0 0 0 0 0 0 0 0 0 0 0 0 0 0 0 0 0 0 0 0 0 0 0 0 0 0 0 0 0 0 0 0 0 0 0 0 0 0 0 0 0 0
402 359 35 0 1 5 0 1 0 0 0 0 0 0 0 0 0 0 0 0 0 0 0 0 0 0 0 0 0 0 0 0 0 0 0 0 0 0 0 0 0 0 0 0 0 0 0 0 0 0 0 0 0 0 0 0 0 0 0 0 0 0 0
271 154 45 3 0 0 0 0 0 0 0 0 0 0 0 0 0 0 0 0 0 0 0 0 0 0 0 0 0 0 0 0 0 0 0 0 0 0 0 0 0 0 0 0 0 0 0 0 0 0 0 0 0 0 0 0 0 0 0 0 0 0 0
376 248 33 0 0 0 0 0 0 0 0 0 0 0 0 0 0 0 0 0 0 0 0 0 0 0 0 0 0 0 0 0 0 0 0 0 0 0 0 0 0 0 0 0 0 0 0 0 0 0 0 0 0 0 0 0 0 0 0 0 0 0 0
550 359 194 59 34 32 0 0 0 0 0 0 3 0 0 0 0 0 0 0 0 0 0 0 0 0 0 0 0 0 0 0 0 0 0 0 0 0 0 0 0 0 0 0 0 0 0 0 0 0 0 0 0 0 0 0 0 0 0 0 0 0 0
370 302 238 275 268 229 190 2 12 0 0 0 1 2 0 0 0 0 0 0 0 1 0 0 0 0 0 0 0 0 0 0 0 0 0 0 0 0 0 0 0 0 0 0 0 0 0 0 0 0 0 0 0 0 0 0 0 0 0 0 0 0 0
628 436 412 327 464 43 243 70 6 0 0 0 0 7 0 8 2 0 0 0 0 0 1 0 0 0 0 0 0 0 0 0 0 0 0 0 0 0 0 0 0 0 0 0 0 0 0 0 0 0 0 0 0 0 0 0 0 0 0 0 0 0 0
616 458 496 474 509 186 31 32 16 0 0 0 0 9 23 8 0 0 0 0 0 0 0 0 0 0 4 0 0 0 0 0 0 0 0 0 0 0 0 0 0 0 0 0 0 0 0 0 0 0 0 0 0 0 0 0 0 0 0 0 0 0 0
600 484 616 655 658 557 354 53 26 7 11 1 0 0 17 6 1 0 2 0 0 0 0 0 0 0 0 0 0 0 0 0 0 0 0 0 0 0 0 0 0 0 0 0 0 0 0 0 0 0 0 0 0 0 0 0 0 0 0 0 0 0 0
617 504 642 710 789 704 374 69 82 39 32 12 0 0 0 3 23 19 40 10 2 0 0 0 0 0 0 0 0 0 0 0 0 0 0 0 0 0 0 0 0 0 0 0 0 0 0 0 0 0 0 0 0 0 0 0 0 0 0 0 0 0 0
585 502 574 654 718 677 386 40 38 35 64 60 161 22 12 18 27 29 42 26 20 9 1 0 0 0 0 0 0 0 0 0 0 0 0 0 0 0 0 0 0 0 0 0 0 0 0 0 0 0 0 0 0 0 0 0 0 0 0 0 0 0 0
701 628 653 664 748 642 314 66 51 47 92 218 252 204 92 88 88 93 90 72 9 6 23 8 10 3 0 0 0 0 0 0 0 0 0 0 0 0 0 0 0 0 0 0 0 0 0 0 0 0 0 0 0 0 0 0 0 0 0 0 0 0 0
795 688 654 613 539 541 496 87 76 217 14 364 342 255 151 112 149 160 163 114 37 10 13 9 68 126 104 88 36 14 18 32 12 8 4 0 0 0 0 0 0 1 1 0 0 0 0 0 0 0 0 0 0 0 0 0 0 0 0 0 0 0 0
861 686 464 402 398 395 79 98 276 472 548 612 548 343 216 98 184 208 211 186 176 106 144 424 86 37 340 22 75 76 59 32 226 241 210 106 0 0 0 0 0 0 0 0 0 0 0 0 0 0 0 0 0 0 0 0 0 0 0 0 0 0 0
770 685 482 462 489 490 228 579 89 62 588 575 481 396 142 0 0 2 176 211 187 181 544 549 202 1 7 6 61 24 11 0 112 241 251 267 271 116 172 5 38 47 0 0 0 0 0 0 0 0 0 0 0 0 0 0 1 0 0 1 0 0 0
627 623 632 574 501 521 550 625 128 610 679 548 550 330 229 130 1 332 354 359 155 553 632 256 0 0 0 0 25 116 45 43 192 192 184 138 181 182 242 263 258 200 0 0 0 0 76 46 32 9 1 1 3 0 0 2 0 0 0 1 0 0 1
547 578 613 649 623 578 526 402 106 623 598 471 351 347 390 510 381 240 464 403 380 192 480 0 0 2 0 0 0 20 118 282 340 357 362 350 337 300 251 246 263 245 194 70 62 76 55 58 47 20 6 2 3 6 6 8 0 0 3 2 3 5 1
692 652 581 580 613 635 603 557 430 197 270 147 313 434 426 360 326 240 57 104 11 223 244 1 6 11 1 124 195 328 475 535 566 554 527 536 519 513 488 373 311 262 200 185 196 175 152 89 57 36 26 16 12 4 1 0 0 8 7 6 3 0 0
714 696 666 639 594 592 580 538 484 412 361 123 208 52 327 20 80 8 24 99 120 7 2 0 0 87 388 397 402 396 400 455 506 518 523 400 447 511 529 467 337 354 370 344 306 245 166 87 34 17 0 16 5 0 6 12 14 6 4 4 0 0 0
253 582 606 611 543 559 557 516 448 388 238 7 122 37 27 33 13 44 129 45 67 90 322 322 356 120 371 364 315 330 293 225 387 505 342 212 194 193 213 264 311 355 368 350 246 209 220 99 74 0 5 6 0 0 0 10 4 0 0 0 0 0 0
0 33 430 776 893 860 743 657 635 531 414 309 132 27 227 314 330 383 395 426 459 433 382 398 410 419 414 336 309 305 178 266 497 374 124 0 0 114 172 216 254 261 275 300 293 259 118 85 0 2 9 2 1 0 0 0 0 2 1 0 0 0 0
0 0 0 147 526 606 612 678 599 554 462 392 311 282 263 318 329 422 372 338 146 78 99 134 154 268 295 328 361 339 305 366 250 31 0 0 0 0 0 120 196 229 240 258 243 218 136 43 0 0 2 1 0 2 1 4 2 2 0 0 0 0 0
0 0 0 0 4 33 25 41 47 143 220 250 228 240 219 156 104 88 16 0 27 190 46 0 0 0 35 299 359 428 429 294 156 0 0 0 0 0 0 0 0 21 26 49 137 0 0 0 0 0 4 6 9 10 8 0 0 0 0 0 0 0 0
0 0 0 0 0 0 0 0 0 0 19 84 83 0 0 0 0 0 0 0 0 46 6 0 0 0 0 0 148 306 221 116 0 0 0 0 0 0 0 0 0 0 0 0 0 0 0 0 0 0 0 0 0 0 0 0 0 0 0 0 0 0 0
0 0 0 0 0 0 0 0 0 0 0 0 0 0 0 0 0 0 0 0 0 0 0 0 0 0 0 0 0 38 71 16 0 0 0 0 0 0 0 0 0 0 0 0 0 0 0 1 0 0 2 2 0 0 0 0 0 0 0 0 0 0 0
0 0 0 0 0 0 0 0 0 0 0 0 0 0 0 0 0 0 0 0 0 0 0 0 0 0 0 0 0 2 56 31 0 0 0 0 0 0 0 0 0 0 0 0 0 0 2 1 1 0 0 0 0 0 0 0 0 0 0 0 0 0 0
0 0 0 0 0 0 0 0 0 0 0 0 0 0 0 0 0 0 0 0 0 0 0 0 0 0 0 0 0 0 0 0 0 0 0 0 0 0 0 0 0 0 0 0 0 0 0 0 1 0 0 0 0 0 0 0 0 0 0 0 0 0 0
0 0 0 0 0 0 0 0 0 0 0 0 0 0 0 0 0 0 0 0 0 0 0 0 0 0 0 0 0 0 0 0 0 0 0 0 0 0 0 0 0 0 0 0 0 0 1 2 3 0 0 0 0 0 0 0 0 0 0 0 0 0 0
0 0 0 0 0 0 0 0 0 0 0 0 0 0 0 0 0 0 0 0 0 0 0 0 0 0 0 0 0 0 0 0 14 0 0 0 0 0 0 0 0 0 0 0 0 0 1 0 0 0 0 0 0 0 0 0 0 0 0 0 0 0 0

ECMWFFLT1_con_mucape_030.txt.gz
CAPE
826 772 736 637 377 139 64 93 178 323 390 391 463 443 492 308 464 516 508 613 430 317 406 430 711 700 771 815 1204 1436 1390 1457 1471 1200 1139 1243 1165 1164 854 1200 1304 855 1070 1180 633 197 304 382 127 8 27 41 25 9 7 3 4 0 0 0 0 0 0
718 720 476 265 256 134 129 295 314 226 410 523 432 363 339 303 412 429 599 476 435 397 208 326 412 493 699 781 889 837 1748 1793 1668 1541 1319 1300 1298 1318 1107 1307 1160 832 1084 921 999 785 484 347 143 21 10 6 3 6 5 2 0 0 0 0 0 0 0
748 552 342 296 245 204 208 238 176 236 194 198 319 412 353 305 385 406 411 393 473 254 219 353 413 462 514 568 638 708 1027 910 834 1293 1350 1312 1180 1264 1298 1316 931 860 887 849 902 661 495 394 278 17 8 11 12 6 0 0 0 0 0 0 0 0 0
917 625 390 246 104 78 37 130 147 112 133 110 211 421 510 369 430 353 283 236 257 235 142 179 233 226 242 360 586 827 830 810 1138 1066 980 1170 1032 918 1040 1019 512 659 850 523 622 513 531 539 264 75 46 21 4 0 0 0 0 0 0 0 0 0 0
1016 626 321 183 111 50 49 68 28 28 32 136 264 274 506 432 275 258 221 210 213 237 156 105 39 61 69 137 282 394 496 685 736 750 939 1022 1057 1011 996 895 747 735 758 836 513 570 619 528 362 123 27 2 0 0 0 0 0 0 0 0 0 0 0
910 463 214 147 113 42 6 0 2 2 12 127 266 221 461 335 63 114 145 101 84 24 2 0 22 86 70 97 159 197 290 255 345 628 978 1193 1239 1026 476 194 137 263 192 75 292 536 540 316 133 56 0 0 1 0 0 0 0 0 0 0 0 0 0
971 551 224 165 128 42 3 2 1 0 40 148 271 210 88 16 0 1 5 0 0 0 18 178 136 36 21 3 38 62 54 109 274 354 481 446 287 163 106 64 26 11 2 0 0 17 52 14 9 0 0 0 0 0 0 0 0 0 0 0 0 0 0
970 505 281 234 240 73 0 4 0 6 8 46 39 5 15 0 0 0 0 0 0 4 75 77 9 9 1 0 0 0 0 0 4 13 67 108 132 92 42 0 0 0 0 0 0 0 0 0 0 0 0 0 0 0 0 0 0 0 0 0 0 0 0
616 520 444 260 127 56 4 0 0 1 3 10 2 4 8 0 0 0 0 0 0 2 8 0 0 0 0 0 0 0 0 0 0 0 0 5 6 0 0 0 0 0 0 0 0 0 0 0 0 0 0 0 0 0 0 0 0 0 0 0 0 0 0
840 785 397 159 58 128 46 1 0 0 0 0 1 8 13 0 0 0 0 0 0 0 0 0 0 0 0 0 0 0 0 0 0 0 0 0 0 0 0 0 0 0 0 0 0 0 0 0 0 0 0 0 0 0 0 0 0 0 0 0 0 0 0
1000 554 262 234 290 260 116 1 0 0 0 1 6 16 1 0 0 0 0 0 0 0 0 0 0 0 0 0 0 0 0 0 0 0 0 0 0 0 0 0 0 0 0 0 0 0 0 0 0 0 0 0 0 1 0 0 0 0 0 0 0 0 0
875 415 321 252 443 396 246 12 0 0 0 0 0 7 2 0 0 0 0 0 0 0 0 0 0 0 0 0 0 0 0 0 0 0 0 0 0 0 0 0 0 0 0 0 0 0 0 0 0 0 0 0 0 0 0 0 0 0 0 0 0 0 0
558 476 113 180 287 340 202 9 0 3 9 0 0 0 0 0 0 0 0 0 0 0 0 0 0 0 0 0 0 0 0 0 0 0 0 0 0 0 0 0 0 0 0 0 0 0 0 0 0 0 0 0 0 0 0 0 0 0 0 0 0 0 0
609 502 324 284 267 390 213 52 1 0 0 1 0 0 0 0 0 0 0 0 0 0 0 0 0 0 0 0 0 0 0 0 0 0 0 0 0 0 0 0 0 0 0 0 0 0 0 0 0 0 0 0 0 0 0 0 0 0 0 0 0 0 0
713 529 388 282 382 444 36 0 72 0 2 11 4 0 0 0 0 0 0 0 0 0 0 0 0 0 0 0 0 0 0 0 0 0 0 0 0 0 0 0 0 0 0 0 0 0 0 0 0 0 0 0 0 0 0 0 0 0 0 0 0 0 0
893 908 893 646 603 543 218 8 134 245 75 62 14 0 0 0 0 0 0 0 0 0 0 0 0 0 0 0 0 0 0 0 0 0 0 0 0 0 0 0 0 0 0 0 0 0 0 0 0 0 0 0 0 0 0 0 0 0 0 0 0 0 0
825 999 1109 850 846 657 753 448 0 79 162 83 14 23 15 0 0 0 0 0 2 13 20 35 5 0 0 0 0 0 0 0 0 0 0 0 0 0 0 0 0 0 0 0 0 0 0 0 0 0 0 0 0 0 0 0 0 0 0 0 0 0 0
779 943 956 511 522 856 852 873 262 0 162 311 129 144 58 2 2 0 7 0 4 8 12 10 9 7 11 10 16 27 11 6 7 0 0 0 0 0 0 0 0 0 0 0 0 0 0 0 0 0 0 0 0 0 0 0 0 0 0 0 0 0 0
888 899 789 672 670 660 822 819 922 436 272 372 451 330 225 125 46 32 25 16 14 15 14 19 18 16 19 31 55 97 120 135 114 76 39 32 1 0 0 0 0 0 0 0 0 0 0 0 0 0 0 0 0 0 0 0 0 0 0 0 0 0 0
924 834 772 736 736 647 667 883 893 634 534 465 565 511 440 348 273 357 347 311 250 213 175 151 202 202 181 186 204 204 242 218 233 174 173 98 43 36 41 23 27 4 0 0 0 0 0 0 2 0 0 0 0 0 0 0 0 0 0 0 0 0 0
1206 1113 948 906 887 880 855 934 1019 824 737 601 628 525 570 610 635 457 518 528 487 539 559 503 488 433 426 518 546 563 565 627 561 598 544 370 294 236 169 118 100 76 14 0 0 0 0 0 0 0 0 0 0 0 0 0 0 0 0 0 0 0 0
1268 1156 1066 900 811 857 891 1027 1128 1034 1162 982 752 579 612 589 686 518 568 629 685 710 767 718 704 773 716 709 784 803 747 705 766 787 835 831 722 566 450 384 277 207 60 0 0 0 0 0 0 0 0 0 0 0 0 0 0 0 0 2 11 1 0
919 1170 932 982 960 943 929 1072 1229 1196 1182 1060 1070 848 870 790 699 720 748 814 822 885 950 1075 1089 462 540 797 861 627 875 738 633 759 870 950 1060 968 780 724 559 90 0 0 0 0 0 0 0 0 0 0 0 2 0 0 0 0 0 3 4 0 0
832 1080 846 840 910 944 1039 1167 1214 1212 1144 1104 1135 996 972 923 867 851 923 985 1020 1070 1164 1088 0 0 0 0 341 776 749 736 675 662 826 1078 1154 1113 1079 786 886 383 211 56 177 175 92 0 0 0 0 0 0 61 0 0 0 0 0 0 0 0 0
858 909 863 891 1020 1126 1140 1189 1289 1344 1360 1375 1292 1048 991 944 1031 993 984 1046 1093 1080 1239 581 0 0 0 160 73 468 583 757 929 890 1108 1165 1142 1117 1044 1082 916 746 304 158 216 182 147 0 0 0 0 0 34 28 10 0 0 0 0 0 0 0 0
990 1034 1004 1016 1196 1241 1072 1020 1072 1138 1179 1183 974 799 926 912 1094 1010 992 925 921 924 1091 483 0 0 0 0 0 0 495 816 884 1213 1237 1238 1229 1178 1147 1016 1050 736 588 247 216 186 123 114 0 0 0 0 0 0 0 2 3 1 0 0 0 0 0
828 1028 1065 903 934 1071 1255 1252 1169 819 707 720 631 852 925 988 953 978 897 819 644 620 790 557 0 0 0 0 0 34 614 852 1080 1274 1231 1106 1065 1030 983 912 852 796 678 268 222 256 155 231 0 0 26 18 0 0 2 2 0 0 0 0 0 0 0
0 291 675 803 908 977 1136 1251 1276 1048 866 550 378 625 744 717 710 668 551 576 550 457 652 438 0 0 0 0 6 10 484 783 928 671 665 606 477 358 364 361 416 380 304 350 334 203 199 229 95 24 0 0 0 0 0 0 0 0 0 0 0 1 0
0 0 23 634 851 917 991 1231 1325 908 726 616 437 629 449 590 532 462 548 534 530 571 862 257 0 0 2 17 25 331 795 654 220 322 512 507 463 437 377 303 320 279 266 180 85 185 224 222 205 157 93 0 0 0 0 0 0 0 0 0 0 1 4
0 0 0 0 265 852 1000 1177 1544 1387 1156 980 778 743 810 647 624 711 552 578 743 860 1008 365 273 268 336 338 409 619 461 74 115 272 288 442 373 358 411 346 478 286 264 135 222 237 243 207 120 0 0 0 0 0 0 0 0 0 0 2 6 0 0
0 0 0 0 9 181 570 791 938 1334 1292 1364 1229 1220 1159 937 878 789 807 892 1149 1159 1157 497 450 468 424 428 312 482 68 85 166 299 374 295 137 9 0 0 9 240 48 179 188 236 232 62 0 0 0 0 0 0 0 0 0 0 0 0 0 0 0
0 0 0 0 15 97 270 414 500 830 841 1195 1361 958 624 498 522 748 844 995 616 1280 605 397 376 360 392 405 293 715 102 134 268 220 196 140 61 2 0 0 0 0 0 0 0 0 0 0 0 0 0 0 0 0 0 0 0 0 0 0 0 0 0
0 0 0 0 2 77 217 314 544 594 768 558 864 656 437 373 300 285 224 67 268 434 354 154 0 3 200 300 349 728 223 116 182 221 142 112 35 0 0 0 0 0 0 0 0 0 0 0 0 0 0 0 0 0 0 0 0 0 0 0 0 0 0
0 0 0 0 0 0 30 186 316 380 413 311 377 217 26 42 33 2 4 16 84 424 412 192 0 0 0 0 304 357 305 153 207 180 134 61 35 1 0 0 0 0 0 0 0 0 0 0 0 0 0 0 0 0 0 0 0 0 0 0 0 0 0
0 0 0 0 0 1 12 64 273 434 43 175 328 25 171 41 4 0 4 8 75 82 0 211 50 0 0 0 0 0 341 284 233 190 128 84 10 0 0 0 0 0 0 0 0 0 0 0 0 0 0 0 0 0 0 0 0 0 0 0 0 0 0
0 0 0 0 0 1 10 42 66 104 190 318 290 304 211 66 4 1 10 16 37 54 11 0 0 0 0 0 0 0 196 163 0 174 110 56 0 0 0 0 0 0 0 0 0 0 0 0 0 0 0 0 0 0 0 0 0 0 0 0 0 0 0
0 0 0 0 0 0 11 29 46 36 75 39 18 36 3 75 16 33 14 0 2 18 4 0 0 0 0 0 0 0 0 40 24 138 100 46 0 0 0 0 0 0 0 0 0 0 0 0 0 0 0 0 0 0 0 0 0 0 0 0 0 0 0

ECMWFFLT1_con_mucape_036.txt.gz
CAPE
1306 886 1087 1078 655 552 801 597 774 696 742 614 643 140 240 761 792 746 695 654 445 508 541 838 1470 1211 1399 1149 1374 1380 1322 1190 1246 906 565 599 497 378 577 602 768 1155 1243 1176 416 364 202 144 127 206 324 434 426 258 330 302 12 8 19 0 0 0 0
772 995 510 307 553 629 606 615 716 398 775 804 602 614 569 322 782 907 734 567 1099 331 275 482 736 826 1163 1192 1479 1478 1220 1254 1134 914 632 332 334 254 417 594 849 1027 1193 1119 618 305 344 160 94 81 21 12 18 25 3 1 1 2 0 0 0 0 0
731 610 329 487 632 694 902 1087 1104 1051 874 683 869 462 444 496 527 589 538 537 633 505 447 519 731 868 1060 1107 1368 1380 1291 974 1347 1235 1219 1206 873 756 573 778 683 601 720 918 790 707 697 396 122 13 2 6 0 12 15 3 0 0 0 0 0 0 0
643 656 547 420 528 782 1000 856 901 1001 688 992 781 703 863 627 726 614 456 379 406 771 385 359 664 544 918 1051 1096 1104 983 1166 978 763 1288 1117 950 836 512 473 608 559 443 404 535 639 538 696 223 18 4 0 0 8 78 0 0 0 0 0 0 0 0
811 756 532 466 382 441 573 700 1079 930 1015 726 958 816 850 623 698 736 546 662 623 663 668 643 333 553 769 728 923 1044 1060 1149 1250 1363 1319 1087 1058 918 898 324 376 578 750 389 484 805 668 469 222 8 4 0 0 0 0 3 0 0 0 0 0 0 0
902 645 589 689 576 645 620 803 539 834 726 817 752 741 416 407 354 462 762 499 135 247 154 63 226 472 622 606 721 690 763 859 972 1108 955 1050 1072 705 563 799 479 576 588 527 440 641 1154 663 326 5 1 0 0 0 0 0 0 0 0 0 0 0 0
1103 720 644 533 656 694 830 619 495 747 759 793 709 626 314 314 519 82 42 40 104 162 295 348 278 294 475 209 398 522 573 727 854 731 548 630 646 581 686 408 178 252 615 702 692 635 351 673 160 172 0 0 0 0 0 0 0 0 0 0 0 0 0
919 662 696 798 664 558 561 342 926 746 929 648 430 130 73 54 85 75 120 302 165 52 78 102 22 13 108 43 163 479 532 580 624 509 371 92 2 0 0 0 0 0 277 453 414 528 306 288 317 22 0 0 0 0 0 0 0 0 0 0 0 0 0
577 664 798 629 748 904 452 676 804 1004 727 504 96 26 34 50 4 5 67 108 103 116 76 22 0 0 8 13 0 23 0 69 164 9 1 10 11 5 2 2 0 0 0 0 0 0 24 91 0 46 0 3 10 5 0 0 0 0 0 0 0 0 0
708 885 863 908 739 643 668 774 464 841 572 187 36 4 0 5 20 14 28 74 124 34 0 0 0 0 0 0 10 0 0 0 0 0 1 0 0 0 4 3 2 6 5 7 2 0 0 21 27 8 193 87 123 1 0 0 0 0 0 0 0 0 0
988 1238 1019 823 718 602 459 388 753 546 326 117 13 0 12 0 0 2 0 0 0 0 2 0 0 0 0 0 0 0 0 0 0 5 1 38 97 87 14 0 0 0 0 0 0 0 0 6 0 4 0 2 3 29 2 0 0 0 0 0 0 0 0
1242 1102 809 614 502 442 249 392 409 502 282 65 6 2 0 0 0 0 0 0 0 0 0 0 0 0 0 0 0 0 0 0 0 0 0 16 42 82 22 1 2 9 109 157 62 6 4 297 9 0 4 0 71 17 0 0 0 0 0 0 0 0 0
951 673 571 589 594 357 158 158 306 346 254 37 3 0 0 0 0 0 0 0 0 0 0 0 0 0 0 0 0 0 0 0 0 0 0 0 1 10 5 15 56 43 12 0 0 0 0 0 2 0 0 0 12 6 0 0 0 0 0 0 0 0 0
850 516 604 711 496 280 116 93 311 259 18 95 0 0 0 0 0 0 0 0 0 0 0 0 0 0 0 0 0 0 0 0 0 0 0 0 0 0 0 0 0 0 12 0 0 0 0 0 0 0 0 1 0 11 0 0 0 0 0 0 0 0 0
566 590 703 580 469 281 170 164 334 49 54 7 0 0 0 0 0 0 0 0 0 0 0 0 0 0 0 0 0 0 0 0 0 0 1 0 0 0 24 0 0 53 15 0 10 0 0 0 0 0 0 0 0 0 0 0 0 0 0 0 0 0 0
388 564 623 527 335 274 249 244 107 179 60 0 0 0 0 0 0 0 0 0 0 0 0 0 0 0 0 0 0 0 0 0 0 3 0 0 0 2 0 0 0 0 0 2 4 0 0 0 0 0 0 0 0 0 0 0 0 0 0 0 0 0 0
362 268 266 522 383 308 265 177 27 98 4 0 0 0 0 0 0 0 0 0 0 0 0 0 0 0 0 0 0 0 0 0 0 0 0 0 0 0 0 0 0 0 0 0 0 0 0 0 0 0 0 0 0 0 0 0 0 0 5 0 0 0 0
560 477 473 531 732 376 288 154 7 4 140 1 0 6 0 0 0 0 0 0 0 0 0 0 0 0 0 0 0 0 0 0 0 0 0 0 0 0 0 0 0 0 0 0 0 0 0 0 0 0 0 0 0 0 0 0 0 0 0 0 0 0 0
1012 926 732 557 549 737 274 219 103 36 18 4 20 21 0 0 0 0 0 0 0 0 0 0 0 0 0 1 1 0 1 0 0 0 0 0 0 54 1 9 0 0 0 17 0 41 0 0 0 0 0 0 0 0 5 0 0 0 0 0 0 0 0
843 893 1005 949 894 794 309 556 130 45 102 3 100 44 0 0 0 0 0 0 0 0 0 0 0 1 0 1 4 5 122 26 59 30 4 0 0 14 20 42 62 29 0 100 23 130 0 5 2 0 0 0 0 0 0 0 0 0 0 0 0 0 0
894 1005 1102 1100 1029 781 792 880 282 169 58 160 53 3 3 0 0 1 0 0 0 0 18 0 0 67 49 103 210 181 230 265 67 211 166 50 40 21 92 135 152 88 5 144 231 71 79 39 0 0 0 0 0 0 0 0 0 0 0 0 0 0 1
1082 1083 1128 1082 956 1002 962 907 718 369 613 627 371 42 89 40 6 0 2 0 15 5 49 13 24 41 123 74 364 402 441 408 460 334 414 318 397 312 206 279 356 134 105 35 0 49 72 16 0 0 8 0 0 0 0 0 0 0 0 0 5 11 4
1233 1255 1230 1231 1219 992 640 542 492 362 330 561 550 169 162 140 95 18 40 85 58 307 200 234 151 9 20 342 306 281 665 663 548 573 528 489 556 524 860 600 41 159 0 0 0 0 0 0 0 0 0 0 0 0 0 0 0 0 1 6 6 0 0
1173 1154 1177 1158 1063 732 735 629 396 389 573 764 788 982 375 297 225 127 46 166 325 377 615 734 0 0 0 13 461 626 622 795 837 811 927 947 1132 1315 581 436 447 349 232 225 0 0 0 0 0 0 0 0 0 1 5 0 0 10 4 0 0 0 0
1123 992 890 848 976 735 656 621 861 757 804 919 936 972 701 732 425 371 204 192 339 590 490 824 758 498 71 0 319 874 994 1076 1046 1088 950 733 475 118 182 478 497 200 249 308 27 0 0 0 0 0 0 0 72 0 0 0 0 0 0 0 0 0 0
573 945 889 812 905 833 686 721 720 762 705 721 776 1078 886 953 1070 1075 882 645 630 706 755 770 751 833 669 356 206 661 908 1124 1025 912 978 612 466 239 516 443 320 282 207 153 160 20 167 153 72 13 0 0 0 68 0 0 0 0 0 0 0 0 0
628 542 758 971 804 645 785 516 600 690 634 662 831 821 1174 1239 1244 1170 1058 938 728 839 734 657 746 745 771 737 524 437 682 881 927 1054 736 566 487 406 297 326 126 133 471 338 266 241 143 0 131 61 0 0 78 0 0 0 0 0 0 0 0 0 0
0 79 328 657 685 804 756 737 778 768 658 866 863 800 1035 1028 1087 1025 1014 1166 1118 820 865 702 623 680 734 809 764 615 472 487 506 605 503 356 289 335 472 344 167 361 406 309 243 278 62 145 157 58 0 138 184 0 0 0 0 0 0 0 0 0 0
0 0 0 34 244 320 646 1129 1111 1170 1131 1206 1198 1321 1077 978 1108 1084 1136 1211 1160 1071 953 788 700 675 704 766 846 698 438 23 74 305 688 339 317 348 235 348 253 230 380 270 239 163 36 0 0 0 103 182 47 0 0 0 0 0 0 0 0 0 0
0 0 0 0 7 86 376 652 888 974 827 768 999 1085 930 906 891 1012 1086 1074 1010 1213 1092 944 853 780 824 814 749 588 390 94 88 197 628 351 421 415 324 392 175 13 22 283 116 56 0 48 23 0 0 0 0 0 0 0 0 0 0 0 0 0 0
0 0 0 0 1 27 12 25 191 893 949 921 1054 927 1037 987 770 743 830 787 934 998 850 823 855 841 806 842 808 724 615 499 414 316 121 29 162 323 3 0 4 176 2 207 229 0 239 243 133 5 0 0 25 0 0 0 0 0 0 0 0 0 0
0 0 0 0 0 0 6 22 4 20 344 777 800 971 734 628 717 748 796 857 812 736 595 593 791 721 731 774 705 634 526 435 316 518 384 298 134 0 0 0 0 177 281 15 80 253 230 184 162 82 11 0 0 0 0 0 0 0 0 0 0 0 0
0 0 0 0 0 0 0 0 0 2 5 2 82 487 703 696 774 781 747 874 863 652 569 580 569 812 832 765 678 582 482 417 363 290 244 20 94 0 0 0 0 36 282 290 308 220 0 9 168 0 8 0 0 0 0 0 0 0 0 0 0 0 0
0 0 0 0 0 0 0 0 0 0 0 0 4 49 519 929 596 590 519 674 818 828 720 741 698 554 599 746 738 649 546 476 133 57 108 6 21 6 0 2 0 0 154 2 0 0 0 179 151 0 0 0 0 0 0 0 0 0 0 0 0 0 0
0 0 0 0 0 0 0 0 0 0 0 0 0 4 33 519 145 60 230 569 530 619 718 751 704 583 532 669 768 697 404 322 399 315 14 15 10 0 0 0 0 0 0 0 0 0 0 0 0 0 0 0 0 0 0 0 0 0 0 0 0 0 0
0 0 0 0 0 0 0 0 0 0 0 0 0 12 31 563 450 363 380 502 666 520 464 458 450 364 435 536 501 416 237 13 172 1 183 162 92 0 0 0 0 0 0 0 0 0 0 0 0 0 0 0 0 0 0 0 0 0 0 0 0 0 0
0 0 0 0 0 0 0 0 0 0 0 0 0 1 15 111 406 239 267 313 324 275 341 309 321 360 398 477 514 531 534 381 295 52 221 26 0 0 0 0 0 0 0 0 0 0 0 0 0 0 0 0 0 0 0 0 0 0 0 0 0 0 0

ECMWFFLT1_con_mucape_039.txt.gz
CAPE
428 225 140 1 4 4 0 77 128 125 152 278 321 58 183 365 504 609 562 676 1023 952 842 952 981 1225 1262 1112 1068 1249 1046 658 659 757 686 670 598 620 585 492 740 768 656 537 2 0 5 23 29 18 268 517 266 160 222 229 317 0 0 0 0 0 0
212 32 0 2 4 1 0 0 0 108 189 156 96 61 235 399 633 446 204 230 621 847 897 882 972 988 1095 1018 1102 1185 1120 877 720 671 613 552 470 544 538 530 774 720 451 284 70 0 0 2 16 15 78 194 278 185 269 212 0 0 0 0 0 0 0
212 0 144 0 0 0 11 153 78 8 26 118 224 66 47 186 127 216 179 116 80 249 406 596 768 692 871 1140 1009 990 887 919 860 615 64 166 379 322 451 452 727 607 422 243 151 56 0 4 12 7 10 1 0 0 0 0 0 0 0 0 0 0 0
272 0 43 0 30 151 104 56 36 15 66 70 150 67 69 122 189 123 46 91 136 215 120 369 554 748 740 690 879 858 738 794 873 854 505 406 249 217 496 496 610 481 393 224 0 96 39 0 0 0 0 0 0 0 0 0 0 0 0 0 0 0 0
336 3 0 0 67 317 16 92 108 70 49 102 114 118 92 66 58 160 9 0 14 72 172 366 384 502 644 703 681 618 673 613 772 970 695 487 374 424 493 470 496 473 26 77 23 156 64 0 0 0 0 0 0 0 0 0 0 0 0 0 0 0 0
302 0 0 0 38 194 7 212 79 31 64 117 48 3 26 5 0 1 13 3 0 4 3 198 319 335 451 572 650 716 679 605 689 811 540 489 409 171 20 24 367 393 54 392 381 83 26 1 0 0 0 0 0 0 0 0 0 0 0 0 0 0 0
26 7 2 0 9 0 10 27 40 26 65 68 24 10 11 0 0 0 0 0 0 0 0 0 13 67 77 319 445 665 699 641 710 770 628 580 604 409 45 65 108 486 253 446 429 92 33 0 0 0 0 0 0 0 0 0 0 0 0 0 0 0 0
17 13 20 16 38 5 27 0 49 36 206 22 0 0 0 0 0 1 0 0 0 0 0 0 0 0 241 284 323 425 412 312 242 194 255 446 618 541 476 391 445 503 376 367 466 280 25 0 0 0 0 0 0 0 0 0 0 0 0 0 0 0 0
62 42 37 87 90 1 0 92 83 16 0 0 0 0 0 0 0 0 0 0 0 0 0 0 0 0 0 167 249 220 17 0 0 0 0 0 0 0 0 0 330 425 400 427 522 337 150 34 34 0 0 0 0 0 0 0 0 0 0 0 0 0 0
33 47 4 2 5 13 63 21 2 0 0 0 0 0 0 0 0 0 0 1 0 0 0 0 0 0 0 0 0 0 0 0 0 0 0 0 0 0 0 0 0 0 0 0 59 73 47 53 19 0 0 0 0 0 0 0 0 0 0 0 0 0 0
44 60 11 0 0 0 4 5 0 0 0 0 0 0 0 0 3 40 0 0 0 0 0 0 0 0 0 0 0 0 0 0 0 0 0 0 0 0 0 0 0 0 0 0 0 0 0 0 0 0 0 0 0 0 0 0 0 0 0 0 0 0 0
229 105 3 0 0 0 0 0 0 0 0 0 0 0 0 0 0 0 0 0 0 0 0 0 0 0 0 0 0 0 0 0 0 0 0 0 0 0 0 0 0 0 0 0 0 0 0 0 0 0 0 0 0 0 0 0 0 0 0 0 0 0 0
233 20 0 0 0 0 0 0 0 0 0 0 0 0 0 0 0 0 0 0 0 0 0 0 0 0 0 0 0 0 0 0 0 0 0 0 0 0 0 0 0 0 0 0 0 0 0 0 0 0 0 0 0 0 0 0 0 0 0 0 0 0 0
129 4 1 0 0 0 0 0 0 0 0 0 0 0 0 0 0 0 0 0 0 0 0 0 0 0 0 0 0 0 0 0 0 0 0 0 0 0 0 0 0 0 0 0 0 0 0 0 0 0 0 0 0 0 0 0 0 0 0 0 0 0 0
284 217 166 168 1 0 0 0 0 0 0 0 0 0 0 0 0 0 0 0 0 0 0 0 0 0 0 0 0 0 0 0 0 0 0 0 0 0 0 0 0 0 0 0 0 0 0 0 0 0 0 0 0 0 0 0 0 0 0 0 0 0 0
415 370 359 142 11 0 43 139 0 0 0 0 0 0 0 0 0 0 0 0 0 0 0 0 0 0 0 0 0 0 0 0 0 0 0 0 0 0 0 0 0 0 0 0 0 0 0 0 0 0 0 0 0 0 0 0 0 0 0 0 0 0 0
476 536 388 128 14 72 186 190 90 0 0 0 0 0 0 0 0 0 0 0 0 0 0 0 0 0 0 0 0 0 0 0 0 0 0 0 0 0 0 0 0 0 0 0 0 0 0 0 0 0 0 0 0 0 0 0 0 0 0 0 0 0 0
287 476 147 105 77 212 250 206 92 0 0 0 0 0 0 0 0 0 0 0 0 0 0 0 0 0 0 0 0 0 0 0 0 0 0 0 0 0 0 0 0 0 0 0 0 0 0 0 0 0 0 0 0 0 0 0 0 0 0 0 0 0 0
181 231 86 133 190 274 245 190 55 0 0 0 0 0 0 0 0 0 0 0 0 0 0 0 0 0 0 0 0 0 0 0 0 0 0 0 0 0 0 0 0 0 0 0 0 0 0 0 0 0 0 0 0 0 0 0 0 0 0 0 0 0 0
233 139 249 255 264 317 256 197 96 0 0 0 0 0 0 0 0 0 0 0 0 0 0 0 0 0 0 0 0 0 0 0 0 0 0 0 0 0 0 0 0 0 0 0 0 0 0 0 0 0 0 0 0 0 0 0 0 0 0 0 0 0 0
196 380 374 558 514 281 270 257 103 40 0 0 0 0 0 0 0 0 0 0 0 0 0 0 0 0 0 0 0 0 0 0 0 0 0 0 0 0 0 0 0 0 0 0 0 0 0 0 0 0 0 0 0 0 0 0 0 0 0 0 0 0 0
458 615 415 446 618 433 380 311 227 168 173 226 0 0 0 0 0 0 0 0 0 0 0 0 0 0 0 0 0 0 0 0 0 0 0 0 0 0 0 0 0 0 0 0 0 0 0 0 0 0 0 0 0 0 0 0 0 0 0 0 0 0 0
520 623 494 410 477 505 345 336 330 260 201 340 143 135 0 0 0 0 0 0 0 0 0 0 0 0 0 0 0 0 37 1 5 1 0 0 0 0 0 0 36 10 0 0 0 0 0 0 0 0 0 0 0 0 0 0 0 0 0 0 0 0 0
532 529 526 479 416 432 400 369 382 319 223 386 526 509 399 39 0 0 0 0 9 0 1 0 0 0 0 0 0 0 32 60 28 29 0 0 260 293 26 0 0 0 0 0 0 0 0 0 0 0 0 0 0 0 0 0 0 0 0 0 0 0 0
154 412 532 276 444 353 305 508 459 478 381 500 455 404 686 476 338 136 0 0 29 79 52 0 0 0 0 0 8 23 44 397 424 508 460 354 333 112 12 0 0 0 0 0 0 0 0 0 0 0 0 0 0 0 0 0 0 0 0 0 0 0 0
141 274 367 288 16 1 65 646 756 624 547 476 409 412 490 591 709 863 272 0 5 103 128 503 401 29 0 0 212 633 630 571 683 605 642 684 629 538 256 0 0 0 361 337 20 0 0 0 0 0 0 0 0 0 0 0 0 0 0 0 0 0 0
5 50 253 213 206 200 467 621 638 694 694 700 647 577 547 581 717 877 777 577 443 431 359 544 554 618 610 385 296 123 785 988 906 850 784 752 716 639 432 12 0 0 0 0 0 0 0 0 0 0 0 123 81 0 0 5 0 0 0 0 0 0 0
0 0 0 198 271 232 561 546 484 528 555 574 581 542 539 616 673 790 804 740 740 662 582 537 554 554 599 667 686 665 547 678 857 906 858 860 778 757 672 610 496 61 0 0 0 0 0 0 0 40 134 141 147 120 23 39 17 0 0 0 0 0 0
0 0 0 0 0 0 145 438 523 512 425 210 180 403 482 479 571 764 887 876 834 832 821 761 723 668 630 594 538 452 467 486 484 532 577 570 406 487 467 477 418 0 0 32 0 0 0 0 44 257 232 179 164 137 20 0 147 10 0 0 22 0 2
0 0 0 0 0 0 0 2 328 398 7 0 98 46 0 230 559 732 845 927 870 886 956 1000 964 888 788 686 614 556 461 479 523 508 452 403 355 334 327 149 0 262 272 32 0 0 0 0 232 285 229 171 163 102 34 166 193 175 168 158 0 0 0
0 0 0 0 0 0 0 0 0 22 5 238 0 250 371 416 549 595 730 764 855 923 973 1043 1065 1061 1020 950 831 743 644 601 654 661 536 380 227 192 275 5 0 0 109 206 0 0 0 0 241 0 0 108 151 151 182 198 214 210 192 165 0 0 0
0 0 0 0 0 0 0 0 0 0 0 0 0 241 400 391 516 754 807 792 765 839 870 896 920 942 918 880 851 841 826 741 696 662 570 459 223 120 272 67 0 0 0 0 0 0 0 0 0 0 141 130 151 172 189 172 129 0 0 0 0 0 0
0 0 0 0 0 0 0 0 0 0 0 0 0 0 0 274 499 595 679 731 746 685 672 708 692 668 620 528 484 544 656 716 729 716 669 550 399 289 0 0 0 0 0 0 0 0 0 0 139 214 64 0 0 6 0 0 0 0 0 0 0 0 0
0 0 0 0 0 0 0 0 0 0 0 0 0 0 0 0 16 307 518 570 664 679 690 697 646 564 486 528 542 571 631 651 658 624 589 505 373 136 0 0 0 3 6 2 0 0 106 241 240 209 104 0 0 0 0 0 0 0 0 0 0 0 0
0 0 0 0 0 0 0 0 0 0 0 0 0 0 0 0 0 0 260 512 528 556 597 582 583 610 601 559 545 590 650 718 657 595 524 457 137 0 0 0 0 2 0 59 222 213 272 238 220 208 188 7 0 0 0 0 0 0 0 0 0 0 0
0 0 0 0 0 0 0 0 0 0 0 0 0 0 0 0 0 0 0 49 241 372 435 498 647 770 759 691 639 592 554 618 604 552 527 432 0 0 0 0 10 2 86 332 288 362 347 296 252 251 186 72 0 0 0 0 0 0 0 0 0 0 0
0 0 0 0 0 0 0 0 0 0 0 0 0 0 0 0 0 0 0 0 0 52 205 334 432 474 531 554 557 574 529 579 654 650 576 217 0 0 0 2 0 0 0 327 355 339 303 253 215 226 176 14 0 0 0 0 0 0 0 0 0 0 0

ECMWFFLT1_con_mucape_042.txt.gz
CAPE
439 453 591 638 577 527 579 694 835 865 746 590 498 561 594 647 704 729 817 758 779 791 769 790 878 875 1094 1059 884 739 725 560 605 516 470 423 354 356 466 528 615 23 8 0 0 0 0 3 131 166 283 87 60 8 1 0 237 2 0 0 0 0 0
513 577 685 667 566 479 442 488 677 742 678 536 485 532 526 492 527 542 482 528 655 748 650 632 780 798 1034 1067 949 913 888 465 581 586 630 539 415 415 555 691 545 10 0 0 0 0 0 0 89 18 207 220 48 0 0 0 0 0 0 0 0 0 0
219 470 706 664 484 402 385 338 308 421 382 241 232 267 256 0 0 0 0 2 448 667 610 568 654 889 1022 881 922 978 1030 838 585 584 538 524 554 488 586 576 424 0 0 0 0 0 0 0 115 1 1 12 34 110 47 0 0 0 0 0 0 0 0
0 0 398 457 308 301 293 281 267 192 27 1 0 0 0 0 0 0 0 0 356 491 483 537 632 742 840 792 955 948 960 782 685 638 298 311 430 547 641 546 389 1 0 18 0 0 0 0 0 0 0 0 0 0 0 0 0 0 0 0 0 0 0
0 58 173 105 82 14 213 233 121 56 154 42 0 0 0 0 0 0 0 191 344 391 433 423 449 616 793 831 781 665 637 664 626 427 305 290 361 493 646 674 243 0 0 0 0 0 0 0 0 0 0 0 0 0 0 0 0 0 0 0 0 0 0
0 0 166 143 4 9 213 0 0 168 174 43 151 0 0 0 0 0 0 0 0 182 380 422 425 439 434 516 469 502 504 598 669 580 400 338 291 418 512 720 476 330 0 0 0 0 0 0 0 0 0 0 0 0 0 0 0 0 0 0 0 0 0
189 1 207 79 164 242 275 228 175 59 2 0 165 190 81 0 0 0 0 0 0 144 312 365 415 467 475 526 541 500 473 623 690 633 457 332 387 455 476 513 278 433 323 191 0 14 18 0 0 0 0 0 0 0 0 0 0 0 0 0 0 0 0
297 0 0 212 293 329 303 0 0 10 0 0 0 0 0 0 0 0 0 0 0 114 277 258 307 341 449 560 591 492 460 499 555 463 341 344 274 300 427 453 478 302 235 17 0 81 33 0 0 0 0 0 0 0 0 0 0 0 0 0 0 0 0
99 0 75 342 342 300 272 268 0 223 47 0 0 0 0 0 0 0 0 0 0 0 0 0 0 180 379 483 480 511 503 454 418 405 430 480 441 199 151 238 323 301 245 78 0 0 0 0 0 0 0 0 0 0 0 0 0 0 0 0 0 0 0
0 0 0 0 0 26 274 270 41 237 0 0 0 0 0 0 0 0 0 0 0 0 0 0 0 106 248 249 288 304 0 0 0 0 0 0 0 135 174 288 384 314 370 287 0 0 0 0 0 0 0 0 0 0 0 0 0 0 0 0 0 0 0
0 0 0 0 0 119 56 260 217 239 32 0 0 0 0 0 0 4 0 0 0 0 0 0 0 0 0 0 0 0 0 0 0 0 0 0 0 0 0 0 0 202 336 316 166 0 0 0 0 0 0 0 0 0 0 0 0 0 0 0 0 0 0
0 0 0 0 0 0 60 260 223 217 188 50 0 0 0 0 0 0 0 0 0 0 0 0 0 0 0 0 0 0 0 0 0 0 0 0 0 0 0 0 0 89 145 237 214 29 0 0 0 0 0 0 0 0 0 0 0 0 0 0 0 0 0
0 0 0 0 0 0 7 29 0 200 197 10 0 0 0 0 0 0 0 0 0 0 0 0 0 0 0 0 0 0 0 0 0 0 0 0 0 0 0 0 0 0 0 0 0 0 0 0 0 0 0 0 0 0 0 0 0 0 0 0 0 0 0
0 0 0 0 0 0 0 0 0 104 5 0 0 0 0 0 0 0 0 0 0 0 0 0 0 0 0 0 0 0 0 0 0 0 0 0 0 0 0 0 0 0 0 0 0 0 0 0 0 0 0 0 0 0 0 0 0 0 0 0 0 0 0
0 0 0 0 0 140 148 0 0 0 0 0 0 0 0 0 0 0 0 0 0 0 0 0 0 0 0 0 0 0 0 0 0 0 0 0 0 0 0 0 0 0 0 0 0 0 0 0 0 0 0 0 0 0 0 0 0 0 0 0 0 0 0
0 0 0 0 0 0 0 0 9 108 0 0 0 0 0 0 0 0 0 0 0 0 0 0 0 0 0 0 0 0 0 0 0 0 0 0 0 0 0 0 0 0 0 0 0 0 0 0 0 0 0 0 0 0 0 0 0 0 0 0 0 0 0
220 182 9 145 127 0 0 18 182 84 0 0 0 0 0 0 0 0 0 0 0 0 0 0 0 0 0 0 0 0 0 0 0 0 0 0 0 0 0 0 0 0 0 0 0 0 0 0 0 0 0 0 0 0 0 0 0 0 0 0 0 0 0
209 300 275 312 0 0 0 33 142 83 0 0 0 0 0 0 0 0 0 0 0 0 0 0 0 0 0 0 0 0 0 0 0 0 0 0 0 0 0 0 0 0 0 0 0 0 0 0 0 0 0 0 0 0 0 0 0 0 0 0 0 0 0
181 224 285 76 0 0 11 126 122 77 0 0 0 0 0 0 0 0 0 0 0 0 0 0 0 0 0 0 0 0 0 0 0 0 0 0 0 0 0 0 0 0 0 0 0 0 0 0 0 0 0 0 0 0 0 0 0 0 0 0 0 0 0
214 200 90 1 215 17 71 141 140 74 0 0 0 0 0 0 0 0 0 0 0 0 0 0 0 0 0 0 0 0 0 0 0 0 0 0 0 0 0 0 0 0 0 0 0 0 0 0 0 0 0 0 0 0 0 0 0 0 0 0 0 0 0
132 121 30 0 272 8 173 174 117 42 0 0 0 0 0 0 0 0 0 0 0 0 0 0 0 0 0 0 0 0 0 0 0 0 0 0 0 0 0 0 0 0 0 0 0 0 0 0 0 0 0 0 0 0 0 0 0 0 0 0 0 0 0
23 0 0 0 70 103 188 156 88 0 0 1 0 0 0 0 0 0 0 0 0 0 0 0 0 0 0 0 0 0 0 0 0 0 0 0 0 0 0 0 0 0 0 0 0 0 0 0 0 0 0 0 0 0 0 0 0 0 0 0 0 0 0
0 0 0 77 127 150 181 198 148 70 91 135 25 0 0 0 0 0 0 0 0 0 0 0 0 0 0 0 0 0 0 0 0 0 0 0 0 0 0 0 0 21 2 0 0 0 0 0 0 0 0 0 0 0 0 0 0 0 0 0 0 0 0
0 0 14 228 0 0 0 210 201 140 198 237 178 252 269 0 0 0 0 0 0 0 0 0 0 0 0 0 0 0 0 0 0 0 0 0 0 0 0 0 0 0 0 0 0 0 0 0 0 0 0 0 0 0 0 0 0 0 0 0 0 0 0
0 0 41 197 4 120 3 163 267 203 171 168 210 196 294 327 386 280 0 0 0 0 0 0 0 0 0 0 0 0 0 0 0 0 0 0 0 0 0 0 0 0 0 0 0 0 0 0 0 0 0 0 0 0 0 0 0 0 0 0 0 0 0
170 174 78 197 0 205 326 86 0 113 195 188 322 298 310 336 404 516 583 223 0 0 0 0 0 0 0 0 0 0 0 0 0 0 0 0 0 0 0 0 0 0 0 0 0 0 0 0 0 0 0 0 0 0 0 0 0 9 40 4 0 0 0
5 27 0 35 0 0 0 0 0 0 163 170 331 512 501 487 487 528 613 626 399 0 0 0 4 0 0 0 0 0 0 0 0 0 0 0 0 0 0 0 0 0 0 0 0 0 286 300 293 277 154 0 0 0 0 0 0 0 27 59 0 0 2
0 0 0 0 0 0 0 0 43 0 0 0 53 68 495 576 569 553 583 685 720 641 376 64 58 0 0 0 0 0 0 0 0 0 0 0 33 334 367 393 422 416 253 398 404 399 400 410 414 404 182 0 0 0 0 81 134 56 0 0 13 2 4
0 0 0 0 0 0 0 0 0 0 88 141 189 243 194 242 306 382 461 564 774 812 781 667 532 467 342 302 0 0 362 590 553 406 340 423 411 523 597 605 644 675 597 492 440 353 305 317 96 67 0 0 0 0 0 104 174 164 38 4 7 6 1
0 0 0 0 0 0 0 0 0 0 0 0 0 0 0 0 119 146 223 516 711 838 898 911 856 793 707 645 625 613 572 524 622 764 850 786 754 472 564 726 838 867 874 862 797 630 491 355 226 64 58 0 19 6 74 92 130 201 189 22 20 11 8
0 0 0 0 0 0 0 0 0 0 0 0 0 0 0 0 0 0 0 71 457 655 779 864 915 924 950 951 895 818 735 653 580 519 527 462 270 583 529 494 768 844 860 835 793 695 550 412 388 361 252 24 0 60 132 88 130 183 188 58 12 93 113
0 0 0 0 0 0 0 0 0 0 0 0 0 0 0 0 0 0 0 0 0 214 512 714 799 959 1000 1026 1038 1031 1004 958 908 856 815 792 654 419 124 416 482 581 646 639 580 522 443 350 114 114 37 0 222 289 316 274 240 178 36 40 181 178 169
0 0 0 0 0 0 0 0 0 0 0 0 0 0 0 0 0 0 0 0 0 0 11 449 729 870 988 987 972 960 930 873 796 742 692 676 387 371 410 449 435 422 424 398 373 313 228 0 6 12 0 89 336 378 144 171 133 127 6 174 174 163 130
0 0 0 0 0 0 0 0 0 0 0 0 0 0 0 0 0 0 0 0 0 0 0 33 291 553 705 820 832 819 785 689 621 526 430 423 459 532 579 562 522 474 325 273 121 0 0 258 0 0 0 351 17 14 146 118 151 131 111 5 0 0 0
0 0 0 0 0 0 0 0 0 0 0 0 0 0 0 0 0 0 0 0 0 0 0 0 0 340 540 653 698 715 694 652 540 418 343 324 388 469 549 633 629 501 331 299 286 366 316 18 53 15 334 4 168 26 0 0 0 0 0 0 0 0 0
0 0 0 0 0 0 0 0 0 0 0 0 0 0 0 0 0 0 0 0 0 0 0 0 0 0 138 424 644 700 680 628 586 505 401 343 359 423 496 561 572 483 354 262 262 141 97 272 292 171 125 169 61 0 0 0 0 0 0 0 0 0 0
0 0 0 0 0 0 0 0 0 0 0 0 0 0 0 0 0 0 0 0 0 0 0 0 0 0 0 0 0 394 574 656 699 704 590 494 470 488 528 573 600 482 315 220 210 185 126 196 287 321 314 241 139 17 0 0 0 0 0 0 0 0 0

ECMWFFLT1_con_mucape_045.txt.gz
CAPE
994 922 924 913 918 974 981 982 967 878 741 718 672 586 581 510 527 652 806 794 894 862 826 789 912 830 724 781 630 686 581 506 416 277 313 397 450 444 403 466 71 0 0 0 0 8 73 173 144 195 181 132 136 116 148 234 176 0 0 0 0 0 0
825 869 892 885 874 881 831 841 924 848 726 602 495 476 556 645 642 596 710 803 816 797 806 725 822 840 841 674 567 625 536 441 386 389 390 406 413 461 426 420 388 0 0 0 0 0 0 58 126 125 86 80 60 102 228 212 50 0 0 0 0 0 0
761 768 768 667 682 662 685 717 869 817 658 504 430 455 491 498 502 504 553 575 590 657 684 653 699 757 814 844 643 692 607 465 452 468 411 383 405 436 414 443 337 0 0 0 0 0 0 0 85 92 48 0 12 115 178 30 0 0 0 0 0 0 0
566 603 599 566 556 546 578 615 737 751 595 459 397 382 344 56 0 0 0 181 420 529 569 479 514 626 723 895 779 687 606 366 395 446 465 488 446 375 390 493 374 0 0 14 0 0 0 0 39 103 54 0 0 9 50 0 0 0 0 0 0 0 0
533 613 640 587 520 480 396 464 496 492 348 159 228 273 192 0 0 0 0 0 186 422 484 422 418 599 762 831 789 741 791 687 478 460 436 438 475 495 446 500 420 112 0 0 0 0 0 0 2 37 81 0 3 0 0 0 0 0 0 0 0 0 0
608 694 729 639 505 419 338 277 222 145 120 22 152 211 0 0 0 0 0 0 317 378 388 422 502 589 686 669 775 774 853 796 587 517 126 220 386 504 523 531 444 0 0 0 0 0 0 0 0 0 72 5 9 2 1 0 0 0 0 0 0 0 0
540 677 753 678 454 385 306 248 190 162 152 130 144 154 149 0 0 0 150 312 333 368 373 376 442 596 645 678 723 631 615 576 517 441 248 245 286 480 530 584 460 303 0 0 0 0 0 0 0 0 0 1 0 6 1 0 0 0 0 0 0 0 0
255 420 598 556 368 282 267 232 188 178 158 132 129 0 0 0 0 0 0 0 120 306 321 332 359 370 406 417 380 377 341 411 430 397 298 235 251 434 540 618 556 389 45 20 0 0 0 0 0 0 0 1 1 0 0 0 0 0 0 0 0 0 0
157 246 372 296 177 233 271 240 217 56 0 0 0 0 0 0 0 0 0 0 0 0 0 120 326 356 399 439 390 300 352 442 482 346 217 227 256 315 474 597 526 378 308 93 0 0 0 0 0 0 0 0 0 0 0 0 0 0 0 0 0 0 0
209 193 169 188 167 248 282 300 241 0 0 0 0 0 0 0 0 0 0 0 0 0 0 0 0 0 355 452 416 312 331 337 304 261 215 32 194 371 436 448 326 346 262 169 0 0 0 0 0 0 0 0 0 0 0 0 0 0 0 0 0 0 0
439 271 160 164 317 401 356 304 260 0 0 0 0 0 0 0 0 0 0 0 0 243 0 0 0 0 294 344 392 348 198 0 0 56 172 289 48 0 304 399 397 302 0 0 0 0 0 0 0 0 0 0 0 0 0 0 0 0 0 0 0 0 0
488 92 160 347 419 376 284 329 301 239 0 0 0 0 0 0 0 0 0 0 0 39 152 0 0 0 224 229 240 63 0 0 0 0 0 0 0 0 0 179 229 0 0 0 0 0 0 0 0 0 0 0 0 0 0 0 0 0 0 0 0 0 0
358 0 268 368 272 218 273 336 286 233 0 0 0 0 0 0 0 0 0 0 0 0 0 0 0 0 0 0 0 0 0 0 0 0 0 0 0 0 0 0 0 0 0 0 0 0 0 0 0 0 0 0 0 0 0 0 0 0 0 0 0 0 0
316 0 0 0 0 137 203 266 268 10 0 0 0 0 0 0 0 0 0 0 0 0 0 0 0 0 0 0 0 0 0 0 0 0 0 0 0 0 0 0 0 0 0 0 0 0 0 0 0 0 0 0 0 0 0 0 0 0 0 0 0 0 0
0 0 0 0 0 0 0 229 260 0 0 0 0 0 0 0 0 0 0 0 0 0 0 0 0 0 0 0 0 0 0 0 0 0 0 0 0 0 0 0 0 0 0 0 0 0 0 0 0 0 0 0 0 0 0 0 0 0 0 0 0 0 0
0 0 0 0 0 0 0 0 0 8 125 0 0 0 0 0 0 0 0 0 0 0 0 0 0 0 0 0 0 0 0 0 0 0 0 0 0 0 0 0 0 0 0 0 0 0 0 0 0 0 0 0 0 0 0 0 0 0 0 0 0 0 0
0 0 0 0 0 0 0 0 0 13 145 0 0 0 0 0 0 0 0 0 0 0 0 0 0 0 0 0 0 0 0 0 0 0 0 0 0 0 0 0 0 0 0 0 0 0 0 0 0 0 0 0 0 0 0 0 0 0 0 0 0 0 0
0 0 41 18 34 33 0 0 0 0 114 84 0 0 0 0 0 0 0 0 0 0 0 0 0 0 0 0 0 0 0 0 0 0 0 0 0 0 0 0 0 0 0 0 0 0 0 0 0 0 0 0 0 0 0 0 0 0 0 0 0 0 0
0 54 87 100 124 0 0 0 0 0 87 0 0 0 0 0 0 0 0 0 0 0 0 0 0 0 0 0 0 0 0 0 0 0 0 0 0 0 0 0 0 0 0 0 0 0 0 0 0 0 0 0 0 0 0 0 0 0 0 0 0 0 0
38 83 105 136 29 0 0 0 0 0 0 0 0 0 0 0 0 0 0 0 0 0 0 0 0 0 0 0 0 0 0 0 0 0 0 0 0 0 0 0 0 0 0 0 0 0 0 0 0 0 0 0 0 0 0 0 0 0 0 0 0 0 0
101 34 13 101 0 25 0 0 0 0 0 0 0 0 0 0 0 0 0 0 0 0 0 0 0 0 0 0 0 0 0 0 0 0 0 0 0 0 0 0 0 0 0 0 0 0 0 0 0 0 0 0 0 0 0 0 0 0 0 0 0 0 0
0 64 46 4 0 28 6 0 0 0 52 0 0 0 0 0 0 0 0 0 0 0 0 0 0 0 0 0 0 0 0 0 0 0 0 0 0 0 0 0 0 0 0 0 0 0 0 0 0 0 0 0 0 0 0 0 0 0 0 0 0 0 0
4 69 30 20 28 32 8 0 0 66 55 0 0 0 0 0 0 0 0 0 0 0 0 0 0 0 0 0 0 0 0 0 0 0 0 0 0 0 0 0 0 0 0 0 0 0 0 0 0 0 0 0 0 0 0 0 0 0 0 0 0 0 0
10 4 18 84 87 79 0 0 0 37 35 0 0 0 0 0 0 0 0 0 0 0 0 0 0 0 0 0 0 0 0 0 0 0 0 0 0 0 0 0 0 0 0 0 0 0 0 0 0 0 0 0 0 0 0 0 0 0 0 0 0 0 0
9 11 0 78 64 138 18 0 7 30 14 55 50 0 93 135 188 69 0 0 0 0 0 0 0 0 0 0 0 0 0 0 0 0 0 0 0 0 0 0 0 0 0 0 0 0 0 0 0 0 0 0 0 0 0 0 0 0 0 0 0 0 0
53 0 0 1 158 0 0 0 0 0 0 143 47 147 0 135 201 234 316 16 0 0 0 0 0 0 0 0 0 0 0 0 0 0 0 0 0 0 0 0 0 0 0 0 0 0 0 0 0 0 0 0 0 0 0 0 0 0 0 0 0 0 0
48 12 5 4 35 202 0 0 0 0 0 0 0 0 262 131 238 265 274 348 328 0 0 0 0 0 0 0 0 0 0 0 0 0 0 0 0 0 0 0 0 0 0 0 0 0 0 0 0 0 0 0 0 0 0 0 0 0 0 0 0 0 2
0 0 5 4 0 0 0 122 0 76 0 0 0 0 160 238 231 273 305 324 354 412 456 84 54 0 0 0 0 0 0 0 0 0 0 0 0 0 0 0 0 0 0 0 0 0 0 0 0 0 0 0 0 0 0 0 0 0 0 0 0 20 33
0 0 4 8 0 0 6 20 9 41 1 2 0 126 133 113 196 231 246 246 263 304 413 534 552 362 0 0 0 0 0 0 0 0 0 0 0 0 0 0 0 0 0 0 0 0 0 0 0 0 0 0 0 0 0 0 0 0 0 0 0 0 0
0 0 0 0 0 0 0 0 1 0 0 0 0 0 152 151 125 131 172 208 212 217 206 414 556 640 648 518 131 86 0 0 0 0 0 0 0 0 0 0 0 63 73 294 336 364 400 392 360 234 242 297 314 125 310 285 82 0 0 0 8 13 4
0 0 0 0 0 0 2 13 12 14 2 0 0 0 0 0 0 0 17 131 178 201 206 229 362 537 664 703 728 690 560 421 343 314 333 321 281 271 314 342 355 350 398 412 444 416 451 452 256 97 238 295 90 52 159 323 312 0 0 0 46 94 12
2 4 4 8 8 6 2 3 5 7 11 11 10 8 3 0 0 0 0 0 0 0 110 195 236 325 457 588 648 658 711 692 737 781 752 720 667 541 259 438 525 549 526 489 424 422 419 419 144 1 124 139 16 81 364 427 375 297 265 222 120 78 40
0 0 0 2 2 2 2 2 4 4 2 1 0 0 0 0 0 0 0 0 0 0 0 0 32 217 309 380 455 500 581 607 659 738 830 859 871 728 624 622 608 669 566 454 444 381 346 393 55 141 202 248 228 233 332 348 309 0 0 0 28 10 10
0 0 0 0 0 0 0 0 0 0 0 0 0 0 0 0 0 0 0 0 0 0 0 0 0 0 98 261 334 369 380 434 563 615 642 671 625 635 643 614 581 552 509 471 445 468 465 439 440 428 381 372 368 296 212 75 0 22 16 1 0 1 0
0 0 0 0 0 0 0 0 0 0 0 0 0 0 0 0 0 0 0 0 0 0 0 0 0 0 0 0 15 101 149 206 270 401 496 534 602 622 608 553 443 383 404 430 467 491 496 493 478 414 389 330 224 186 15 175 138 65 18 4 4 5 6
0 0 0 0 0 0 0 0 0 0 0 0 0 0 0 0 0 0 0 0 0 0 0 0 0 0 0 0 0 0 0 37 108 42 0 210 433 528 578 574 458 332 326 378 442 502 570 617 584 469 379 310 288 260 202 176 76 18 8 10 9 8 2
0 0 0 0 0 0 0 0 0 0 0 0 0 0 0 0 0 0 0 0 0 0 0 0 0 0 0 0 0 0 0 0 0 0 0 0 0 0 262 394 511 619 585 456 394 450 563 617 609 512 412 349 336 311 281 17 18 6 14 12 19 3 0

ECMWFFLT1_con_mucape_048.txt.gz
CAPE
1105 1036 1017 960 814 772 799 808 875 821 717 619 650 532 360 0 0 144 456 547 652 678 517 610 775 745 693 706 677 665 472 415 352 315 355 371 380 351 351 62 65 0 0 0 1 69 72 126 112 80 134 163 195 181 72 0 0 0 0 0 0 0 0
1105 950 973 906 796 787 836 784 761 610 523 525 522 438 364 42 352 424 544 640 699 726 685 622 746 801 781 737 720 672 564 499 423 332 303 322 316 388 376 329 322 0 0 0 0 0 118 104 71 0 1 2 132 47 4 0 0 0 0 0 0 0 0
1057 866 884 865 782 797 779 716 652 529 456 390 249 363 379 375 167 411 573 645 657 714 720 699 714 799 795 691 728 658 604 574 478 404 333 300 310 366 377 348 0 0 0 0 0 0 1 23 57 0 0 0 0 0 0 0 0 0 0 0 0 0 0
989 833 835 836 746 757 648 657 592 473 380 98 0 0 0 391 440 422 436 523 605 640 668 676 658 710 783 762 722 605 595 565 472 403 358 344 352 340 353 346 274 0 0 0 0 0 5 31 9 8 5 0 0 0 0 0 0 0 0 0 0 0 0
790 787 784 683 645 615 520 594 563 426 311 78 0 0 0 0 0 0 0 224 376 441 516 562 560 569 662 714 758 671 638 609 554 456 404 414 398 359 340 358 333 296 0 0 0 0 1 21 10 0 0 0 0 0 0 0 0 0 0 0 0 0 0
712 662 533 501 492 488 461 504 567 475 310 69 0 0 0 0 0 0 0 0 14 265 368 434 396 383 464 611 759 744 686 612 482 372 382 422 461 420 394 344 332 346 293 0 0 0 0 0 0 0 0 0 0 0 0 0 0 0 0 0 0 0 0
562 482 428 430 422 409 407 434 481 452 293 0 0 0 0 0 0 0 0 0 0 89 0 0 228 397 499 623 766 751 713 679 658 588 500 471 454 444 433 442 407 440 343 0 0 0 0 0 0 0 0 0 0 0 0 0 0 0 0 0 0 0 0
697 455 458 401 380 338 286 245 215 63 0 0 0 0 0 0 0 0 0 0 180 241 13 279 331 422 500 578 608 693 722 777 821 797 658 527 385 273 367 459 495 469 388 234 0 0 0 0 0 0 0 0 0 0 0 0 0 0 0 0 0 0 0
994 578 538 460 355 294 210 0 0 0 0 0 0 0 0 0 0 0 0 0 0 0 0 252 276 337 364 434 482 482 495 490 556 563 539 432 285 241 295 456 524 524 384 272 133 0 0 0 0 0 0 0 0 0 0 0 0 0 0 0 0 0 0
1011 636 608 565 425 282 192 0 0 0 0 0 0 0 0 0 0 0 0 0 0 0 0 0 234 256 296 352 353 344 317 325 380 452 421 335 216 240 312 509 591 550 407 316 135 0 0 0 0 0 0 0 0 0 0 0 0 0 0 0 0 0 0
784 531 564 592 436 264 52 0 0 0 0 0 0 0 0 0 0 0 0 0 0 0 0 0 0 58 244 351 379 324 290 328 371 352 267 182 192 242 316 498 610 563 368 294 0 0 0 0 0 0 0 0 0 0 0 0 0 0 0 0 0 0 0
305 285 369 426 211 0 0 0 0 0 0 0 0 0 0 0 0 0 0 0 0 0 0 0 0 0 0 89 321 354 271 233 182 198 223 201 132 238 370 459 519 418 345 276 47 0 0 0 0 0 0 0 0 0 0 0 0 0 0 0 0 0 0
262 294 198 187 0 0 0 0 0 0 0 0 0 0 0 0 0 0 0 0 0 0 0 0 0 0 0 0 43 128 0 0 0 0 29 160 199 117 337 461 462 397 269 223 158 60 0 0 0 0 0 0 0 0 0 0 0 0 0 0 0 0 0
424 310 163 11 74 314 334 0 0 0 0 0 0 0 0 0 0 0 0 0 0 0 0 0 0 0 0 0 0 0 0 0 0 0 0 0 45 94 129 317 417 374 246 140 111 56 0 0 0 0 0 0 0 0 0 0 0 0 0 0 0 0 0
442 231 0 7 324 334 0 0 0 0 0 0 0 0 0 0 0 0 0 0 0 0 0 0 0 0 0 0 0 0 0 0 0 0 0 0 0 0 119 153 259 309 252 182 125 53 0 0 0 0 0 0 0 0 0 0 0 0 0 0 0 0 0
401 0 0 265 154 0 0 0 0 0 0 0 0 0 0 0 0 0 0 0 0 0 0 0 8 0 0 0 0 0 0 0 0 0 0 0 0 0 0 113 214 304 313 321 285 163 0 0 0 0 0 0 0 0 0 0 0 0 0 0 0 0 0
320 0 0 0 0 0 0 0 0 0 0 0 0 0 0 0 0 0 0 0 0 0 0 0 0 0 0 0 0 0 0 0 0 0 0 0 0 0 0 47 208 320 354 302 166 0 0 0 0 0 0 0 0 0 0 0 0 0 0 0 0 0 0
267 0 0 0 0 0 0 0 0 0 0 0 0 0 0 0 0 0 0 0 0 0 0 0 0 0 0 0 0 0 0 0 0 0 0 0 0 0 0 24 253 328 319 222 0 0 0 0 0 0 0 0 0 0 0 0 0 0 0 0 0 0 0
278 100 0 0 0 0 0 0 0 0 0 0 0 0 0 0 0 0 0 0 0 0 0 0 0 0 0 0 0 0 0 0 0 0 0 0 0 0 0 0 0 0 0 0 0 0 0 0 0 0 0 0 0 0 0 0 0 0 0 0 0 0 0
284 112 0 0 0 0 0 0 0 0 0 0 0 0 0 0 0 0 0 0 0 0 0 0 0 0 0 0 0 0 0 0 0 0 0 0 0 0 0 0 0 0 0 0 0 0 0 0 0 0 0 0 0 0 0 0 0 0 0 0 0 0 0
208 122 29 34 37 14 0 0 0 0 0 0 0 0 0 0 0 0 0 0 0 0 0 0 0 0 0 0 0 0 0 0 0 0 0 0 0 0 0 0 0 0 0 0 0 0 0 0 0 0 0 0 0 0 0 0 0 0 0 0 0 0 0
151 67 30 6 4 0 0 0 0 0 0 0 0 0 0 0 0 0 0 0 0 0 0 0 0 0 0 0 0 0 0 0 0 0 0 0 0 0 0 0 0 0 0 0 0 0 0 0 0 0 0 0 0 0 0 0 0 0 0 0 0 0 0
42 0 0 0 0 10 1 0 4 0 0 0 0 0 0 0 0 0 0 0 0 0 0 0 0 0 0 0 0 0 0 0 0 0 0 0 0 0 0 0 0 0 0 0 0 0 0 0 0 0 0 0 0 0 0 0 0 0 0 0 0 0 0
2 0 1 10 16 4 10 12 16 9 0 0 0 0 0 0 0 0 0 0 0 0 0 0 0 0 0 0 0 0 0 0 0 0 0 0 0 0 0 0 0 0 0 0 0 0 0 0 0 0 0 0 0 0 0 0 0 0 0 0 0 0 0
1 0 4 0 0 6 11 19 25 27 18 0 0 0 0 0 0 0 0 0 0 0 0 0 0 0 0 0 0 0 0 0 0 0 0 0 0 0 0 0 0 0 0 0 0 0 0 0 0 0 0 0 0 0 0 0 0 0 0 0 0 0 0
0 0 0 0 2 0 0 15 21 24 23 0 0 0 0 0 0 0 0 7 8 8 0 0 0 0 0 0 0 0 0 0 0 0 0 0 0 0 0 0 0 0 0 0 0 0 0 0 0 0 0 0 0 0 0 0 0 0 0 0 0 0 0
8 0 7 7 2 4 6 9 7 4 0 0 0 0 0 0 0 0 0 136 162 231 151 64 65 0 0 0 0 0 0 0 0 0 0 0 0 0 0 0 0 0 0 0 0 0 0 0 0 0 0 0 0 0 0 0 0 0 0 0 0 0 0
27 14 9 22 37 86 90 47 0 0 0 0 0 0 0 91 16 0 48 80 124 160 196 197 172 163 166 118 0 0 0 0 0 0 0 0 0 0 0 0 0 0 0 0 0 0 0 0 0 0 0 0 0 0 0 0 0 0 0 0 0 0 0
20 24 3 6 6 9 87 101 10 0 0 0 0 0 0 0 84 104 100 94 92 96 116 191 262 266 288 290 281 199 44 0 0 0 0 0 0 0 0 0 0 0 0 0 0 0 0 0 0 0 0 0 0 0 0 118 0 0 0 0 0 0 0
10 26 14 7 6 13 40 90 109 77 0 0 0 0 0 0 0 54 93 114 124 98 92 98 116 183 275 347 370 407 414 387 217 57 0 0 0 0 0 0 0 0 0 0 0 0 0 0 30 205 237 254 301 330 370 360 347 317 278 279 262 69 233
0 0 1 2 6 0 0 0 0 3 0 0 0 2 1 0 46 90 112 109 99 91 78 68 70 79 89 183 309 412 473 483 520 511 510 415 255 0 0 0 0 50 103 146 192 191 27 0 0 41 240 235 304 234 200 198 240 280 284 266 228 186 163
0 0 0 0 1 2 5 9 11 18 13 10 0 0 8 6 0 0 0 14 68 66 0 45 63 116 143 148 160 202 312 462 521 546 573 581 559 552 576 578 410 306 311 342 311 319 327 369 394 407 430 383 346 324 296 110 31 0 76 138 137 96 102
0 0 0 0 0 0 0 0 0 0 3 2 1 0 0 0 0 0 0 0 0 0 0 0 0 0 0 0 0 6 16 143 214 385 538 557 501 464 408 312 56 0 0 141 242 279 285 354 422 418 372 339 354 337 318 278 328 287 234 211 154 127 125
0 0 1 2 1 0 0 0 0 0 2 2 6 5 4 3 0 0 0 0 3 6 7 3 0 0 0 0 0 0 0 0 1 65 191 302 392 433 410 319 160 479 544 522 500 493 468 458 392 322 292 314 362 381 390 431 433 364 290 258 223 189 176
0 0 0 0 0 0 0 0 0 0 0 0 0 1 0 0 0 0 0 0 0 0 0 0 0 0 0 0 0 0 0 0 0 0 1 1 2 1 224 273 222 224 484 549 557 508 409 333 300 240 238 252 273 332 399 406 380 329 300 258 222 214 213
0 0 0 0 0 0 0 0 0 0 0 0 0 0 0 0 0 0 0 0 0 0 0 0 0 0 0 0 0 0 0 0 0 0 1 1 1 2 3 2 1 0 54 234 382 429 423 340 260 226 256 307 299 326 378 367 322 317 322 303 221 187 172
0 0 0 0 0 0 0 0 0 0 0 0 0 0 0 0 0 0 0 0 0 0 0 0 0 0 0 0 0 0 0 0 0 1 1 2 2 2 2 4 2 1 0 0 32 126 252 429 471 423 352 353 370 369 391 374 391 440 375 374 325 320 290

ECMWFFLT1_con_mucape_051.txt.gz
CAPE
1508 1301 1296 1301 1237 871 819 855 870 834 825 777 767 702 810 643 535 564 633 778 799 820 586 606 647 614 676 675 657 703 635 718 1002 1159 913 404 477 576 236 459 633 795 1034 968 452 482 421 280 113 127 19 3 0 1 1 1 0 0 0 0 0 0 0
1886 1518 1265 1061 1084 1000 821 792 798 756 659 610 609 640 543 475 521 644 685 843 874 912 723 748 860 737 786 698 747 548 694 797 942 1254 1184 877 1127 812 260 534 717 678 609 756 490 645 495 417 74 155 144 129 112 0 0 0 0 0 0 0 0 0 0
1346 1173 1314 1030 1032 1116 823 722 628 561 551 560 464 469 443 487 657 718 802 849 921 840 819 785 823 754 795 882 700 951 913 1092 918 848 933 1217 1310 674 672 757 618 524 632 616 643 656 576 537 279 109 142 71 6 0 0 0 0 0 0 0 0 0 0
1330 1399 1392 1221 965 1140 888 727 684 581 580 670 644 636 654 692 608 760 879 919 860 830 752 792 980 1068 1118 1176 1121 1098 1161 1094 1136 965 676 838 1019 866 915 858 796 686 714 653 620 656 560 455 248 135 122 109 2 1 0 0 0 0 0 0 0 0 0
1377 1466 1562 1364 1458 1414 1258 943 936 843 807 752 881 889 690 628 633 667 759 816 757 895 919 1036 1171 1148 1223 1037 1015 1032 1060 1062 1119 903 946 808 733 812 910 919 956 912 922 821 712 807 635 501 350 234 160 10 0 0 0 0 0 0 0 0 0 0 0
1440 1586 1571 1444 1439 1313 1220 1094 906 768 702 666 764 782 839 763 894 940 899 855 877 1048 1204 1135 1342 1170 1160 1106 1002 991 1006 911 933 938 987 1053 921 736 849 943 969 755 746 683 764 811 851 717 444 340 152 10 0 0 0 0 0 0 0 0 0 0 0
1025 1228 1342 1220 1140 1158 1190 1145 895 693 711 700 807 794 792 354 365 546 719 1010 1220 1273 1234 1320 1226 1180 916 946 1189 1185 1071 1038 864 888 978 1005 898 891 812 895 848 766 628 368 669 746 898 682 516 318 58 5 0 0 0 0 0 0 0 0 0 0 0
828 930 1101 953 931 1039 1205 1315 1204 1035 691 752 559 1152 357 356 294 339 531 589 686 923 904 1046 992 1074 1078 784 1152 1241 1183 1074 744 727 782 772 880 686 751 925 987 505 335 362 568 638 657 618 544 296 65 9 0 0 0 0 0 0 0 0 0 0 0
717 719 595 551 877 1093 1028 1215 1144 1146 1036 907 775 630 390 263 250 410 471 614 691 844 925 1013 1070 971 1158 1288 1204 1157 1336 711 1156 847 811 773 897 889 732 753 882 766 470 401 443 636 541 606 616 344 104 6 0 0 0 0 0 0 0 0 0 0 0
604 508 563 666 784 842 928 1003 930 714 579 604 500 450 285 103 116 318 541 622 747 830 902 909 928 921 952 930 900 1028 961 883 992 1062 804 863 959 548 564 517 997 894 508 415 340 639 673 679 513 362 107 78 31 2 0 0 0 0 0 0 0 0 0
896 484 529 518 460 463 522 511 439 295 384 369 354 202 195 128 209 131 450 468 512 658 774 640 611 665 789 760 699 772 751 769 909 818 832 853 771 404 417 434 877 558 493 343 339 668 745 530 355 252 164 316 180 5 0 0 0 0 0 0 0 0 0
1186 748 361 348 402 536 447 414 465 539 306 196 179 140 108 71 119 216 360 313 313 254 264 358 344 453 536 610 385 426 109 426 836 903 652 736 625 439 484 665 495 398 320 336 445 501 492 338 317 248 202 112 114 182 3 0 0 0 0 0 0 0 0
1030 793 415 360 467 588 443 379 330 292 330 192 237 173 88 39 78 154 197 228 188 119 57 31 52 74 112 169 88 48 6 34 201 438 336 448 368 604 586 760 677 503 393 320 269 225 227 125 131 78 54 42 32 154 61 0 0 0 0 0 0 0 0
740 526 430 406 536 534 423 328 344 353 151 194 111 95 46 9 1 24 55 76 126 172 63 5 0 3 0 11 3 3 0 0 1 24 62 127 212 502 593 756 849 746 370 277 226 147 101 108 129 78 22 13 7 26 6 0 0 0 0 0 0 0 0
362 277 336 389 411 293 304 315 236 113 208 46 93 56 28 5 0 0 0 1 21 17 26 7 0 0 0 36 10 0 0 0 0 0 1 4 158 258 601 702 661 523 363 274 152 72 43 72 120 74 6 6 1 2 2 0 0 0 0 0 0 0 0
254 201 230 259 252 150 137 96 32 173 97 29 43 50 12 0 0 0 0 0 0 0 2 5 7 7 20 18 2 0 0 0 0 1 1 0 5 139 438 660 687 540 348 393 184 60 42 60 59 22 16 3 2 1 0 0 0 0 0 0 0 0 0
311 197 115 93 61 5 2 2 4 81 53 54 11 0 0 0 0 0 0 0 0 0 0 0 0 0 0 0 0 0 0 0 0 0 0 0 0 57 500 638 531 464 368 494 249 257 93 41 16 14 7 15 3 0 0 0 0 0 0 0 0 0 0
341 138 37 2 0 0 0 0 0 0 13 44 1 0 0 0 0 0 0 0 0 0 0 0 0 0 0 0 0 0 0 0 0 0 0 0 0 12 230 685 340 312 422 655 376 235 128 163 29 19 8 0 0 0 0 0 0 0 0 0 0 0 0
366 173 3 0 0 0 0 0 0 0 0 0 0 0 0 0 0 0 0 0 0 0 0 0 0 0 0 0 0 0 1 1 0 0 0 0 0 0 57 294 175 335 390 686 608 476 299 295 161 145 57 20 0 0 0 0 0 0 0 0 0 0 0
413 294 54 5 5 0 0 0 0 0 0 0 0 0 0 0 0 0 0 0 0 0 0 0 0 0 0 0 0 0 1 8 4 6 0 0 0 0 0 14 62 291 392 529 700 578 440 415 366 317 304 396 34 0 0 0 0 0 0 0 0 0 0
494 304 0 3 21 38 5 0 0 0 0 0 0 0 0 0 0 0 0 0 0 0 0 0 0 0 0 0 0 0 0 1 0 24 25 1 0 0 0 0 2 9 97 214 328 406 445 504 352 484 312 276 179 52 53 20 3 0 0 0 0 0 0
422 309 34 0 0 1 20 66 22 0 5 0 0 0 0 0 0 0 0 0 0 0 0 0 0 0 0 0 0 0 0 0 0 2 25 6 0 0 0 0 0 2 17 23 0 38 56 85 172 121 42 21 31 40 52 26 8 0 0 0 0 0 0
0 101 0 0 0 0 0 0 0 0 0 18 11 1 0 0 0 0 0 0 0 0 0 0 0 0 0 0 0 0 0 1 0 0 5 37 31 5 6 48 11 0 0 0 0 0 0 0 0 188 286 36 18 20 34 19 2 0 0 0 0 0 0
0 0 0 0 7 1 0 0 0 0 0 0 0 0 0 0 0 0 0 0 0 0 0 0 0 0 0 0 0 6 4 14 23 32 66 61 76 183 129 25 154 92 86 0 0 0 0 0 0 0 0 0 4 94 115 63 27 10 0 0 0 0 0
9 45 1 35 12 2 1 0 0 0 0 0 1 4 4 4 0 0 0 0 0 0 1 0 0 0 0 0 0 0 1 15 43 65 78 87 167 223 284 324 338 325 308 329 236 42 0 0 0 0 0 0 0 0 0 81 157 51 9 0 1 0 0
62 77 58 7 8 3 6 6 2 0 0 0 0 2 0 0 0 0 0 0 0 0 0 0 0 0 0 0 0 0 0 0 0 36 82 160 226 279 396 395 499 347 209 6 0 187 199 58 0 0 0 0 0 0 0 0 0 83 140 46 15 60 14
0 0 8 5 4 7 4 3 4 12 12 6 1 1 0 0 0 0 0 0 0 0 0 0 0 0 0 0 0 0 0 0 0 2 18 71 154 206 290 230 209 269 397 243 300 374 216 255 60 0 0 0 0 0 0 0 0 0 0 62 117 83 348
2 2 3 0 0 0 0 0 0 0 0 0 1 2 0 0 0 0 0 0 0 0 0 0 0 0 0 0 0 0 0 0 0 4 22 34 33 82 144 188 207 194 350 235 200 135 122 99 73 74 44 47 43 44 2 0 0 0 0 0 74 177 422
27 28 18 12 1 0 0 0 0 0 0 0 0 7 0 0 0 0 0 0 0 0 0 0 0 0 0 0 0 0 7 19 13 0 2 14 3 14 13 27 55 86 173 221 66 0 0 12 23 32 54 86 56 8 17 165 184 205 225 239 204 191 42
9 10 14 12 5 6 9 7 0 0 2 3 1 0 0 0 0 0 0 0 0 0 0 0 0 0 0 0 0 0 16 91 269 368 344 170 100 34 25 20 58 79 241 340 82 0 0 0 15 40 67 144 142 26 22 170 172 264 286 283 242 177 0
8 7 6 7 9 8 5 2 8 2 0 6 13 13 0 0 0 0 0 0 0 0 0 0 0 0 0 0 0 0 0 0 160 208 269 288 282 346 375 274 234 298 473 611 262 0 0 0 72 235 305 264 269 198 162 162 59 256 262 237 188 0 0
0 0 0 0 0 1 6 7 11 3 4 7 6 5 0 0 0 0 0 0 0 0 0 0 0 0 0 0 0 0 0 0 0 0 0 145 272 324 395 444 450 467 485 470 360 234 0 0 123 372 311 273 296 375 445 362 324 326 316 286 271 229 215
1 0 0 0 0 0 0 0 0 0 0 0 0 0 0 0 0 0 0 0 0 0 0 0 0 0 0 0 0 0 0 0 0 0 0 0 0 0 15 362 478 487 454 414 352 262 161 145 158 182 198 320 443 508 591 442 244 224 224 220 244 272 280
0 0 0 0 0 0 0 0 0 0 0 0 0 0 0 0 0 0 0 0 0 0 0 0 0 0 0 0 0 0 0 0 0 0 0 0 0 0 0 0 5 85 253 359 394 358 315 356 370 355 366 333 500 680 364 382 160 167 183 238 248 254 240
0 0 0 0 0 0 0 0 0 0 0 0 0 0 0 0 0 0 0 0 0 0 0 0 0 0 0 0 0 0 0 0 0 0 0 0 0 0 0 0 0 0 0 0 0 157 253 379 433 411 368 370 303 232 162 127 122 172 200 173 174 131 94
2 1 0 0 0 0 0 0 0 0 0 0 0 0 0 0 0 0 0 0 0 0 0 0 0 0 0 0 0 0 0 0 0 0 0 0 0 0 0 0 1 1 0 0 0 0 71 226 354 432 477 464 384 235 160 87 28 166 128 132 125 123 124
4 1 0 0 0 0 0 0 0 0 0 0 0 0 0 0 0 0 0 0 0 0 0 0 0 0 0 0 0 0 0 0 0 0 0 0 0 0 0 0 0 0 0 0 0 0 0 0 0 32 137 255 328 375 329 274 220 186 162 108 96 91 136

ECMWFFLT1_con_mucape_057.txt.gz
CAPE
946 646 913 737 614 533 1335 1099 1637 1728 1916 1911 1349 1032 1096 647 1167 1730 1951 1761 1558 1351 1218 1435 1339 1368 1026 859 968 1152 980 1137 1150 1094 818 512 763 912 818 783 619 833 724 783 586 663 378 531 264 216 763 814 584 296 66 20 0 0 0 0 0 0 0
983 1171 706 544 638 824 699 1618 1503 1407 1045 1135 1064 1086 963 873 962 947 878 750 1463 1492 744 1303 1146 1197 1353 941 1269 675 1520 1372 1475 1300 1492 452 411 439 1124 1033 1089 1203 1341 990 907 551 617 580 293 268 368 662 533 169 20 2 0 0 0 0 0 0 0
719 834 830 696 777 707 815 1086 1335 1323 1405 1183 1247 1182 1116 1013 906 882 908 773 877 878 573 518 671 934 1446 1453 1414 1398 1104 1118 1245 1210 1142 1347 1170 388 629 636 1501 1102 640 895 871 719 892 666 274 216 258 265 260 120 5 0 0 0 0 0 0 0 0
636 690 694 832 992 939 908 1084 1414 1384 1209 1447 1304 1377 1141 920 1010 1013 919 868 926 806 573 867 1224 1282 1513 1509 1530 1579 803 1101 1315 1311 1247 1188 1504 806 967 1549 990 671 546 441 840 699 743 740 400 393 441 440 168 47 7 2 0 0 0 0 0 0 0
745 802 923 787 797 749 718 691 972 1366 1307 1365 1442 1298 1099 922 1146 1161 1064 795 808 903 661 555 1585 1293 1374 1374 1430 1421 1231 1261 1226 1031 1206 1156 1424 1216 1371 1308 1208 934 930 655 390 887 886 694 632 489 584 296 132 16 0 0 0 0 0 0 0 0 0
1015 948 926 437 408 461 489 532 853 844 906 994 708 1138 1005 1009 951 1034 861 719 616 699 781 1453 1251 1299 1183 1258 1238 1233 1147 1380 1203 1000 770 939 1278 1197 1315 1148 1288 962 467 845 904 876 991 886 522 251 264 153 66 0 0 0 0 0 0 0 0 0 0
1232 1358 1124 490 258 400 285 800 889 655 884 758 710 831 951 904 771 740 694 547 395 532 926 1608 1462 1226 1382 1172 1186 1203 1223 1609 1010 1051 1219 1334 1443 1198 1201 950 1489 940 1172 575 640 608 796 873 582 294 228 59 2 0 0 0 0 0 0 0 0 0 0
1215 1355 848 514 405 659 594 965 628 589 622 674 704 707 810 708 655 516 508 490 450 478 508 975 1366 1425 1398 957 1054 1140 679 987 906 1235 849 972 1172 1033 983 724 961 829 668 875 1039 608 546 786 526 508 154 36 0 0 0 0 0 0 0 0 0 0 0
1392 1126 1173 1101 885 1233 909 584 579 602 525 612 604 439 620 667 707 540 560 492 511 459 378 379 491 777 1469 1182 980 1052 1054 944 950 1246 1201 1490 1110 1058 661 828 1069 694 1032 730 553 809 792 1137 1019 515 124 41 0 0 0 0 0 0 0 0 0 0 0
1330 1525 1175 1196 1212 1142 965 704 608 502 600 546 562 571 481 455 574 628 434 424 460 404 308 288 263 232 1154 1203 1033 1036 944 1087 1274 864 1262 1168 1006 991 1046 1468 1043 1132 994 848 465 864 963 1022 1048 632 197 55 0 0 0 0 0 0 0 0 0 0 0
777 871 883 983 1180 756 697 618 619 673 506 455 502 546 455 478 658 474 454 482 453 350 285 230 206 271 712 709 777 980 1001 1144 1279 856 1160 1299 1124 1328 1297 1626 976 716 1025 1178 639 681 1118 1181 880 983 726 40 1 0 0 0 0 0 0 0 0 0 0
649 988 1214 1381 1047 839 700 746 820 718 592 516 500 421 422 366 549 462 384 412 422 381 282 238 234 253 279 368 413 801 1179 1388 1003 1257 1300 1299 1102 1199 1121 936 754 577 962 1063 494 884 1063 875 665 692 606 12 0 0 0 0 0 0 0 0 0 0 0
800 707 1012 1337 1118 912 684 770 880 698 542 293 397 327 326 332 331 282 156 317 235 302 302 255 206 210 249 255 322 237 663 851 979 1214 1021 1045 1088 982 931 1082 1174 748 771 917 696 714 1002 952 699 527 433 142 8 0 5 4 0 0 0 0 0 0 0
765 1168 775 1203 893 859 813 751 790 705 355 360 331 306 305 226 260 208 138 112 128 177 307 332 261 250 224 221 181 166 204 205 111 143 182 876 431 564 1194 1213 885 905 1034 973 597 728 859 862 826 720 270 8 0 3 6 69 1 0 0 0 0 0 0
597 534 770 943 637 725 692 707 739 497 468 390 271 332 266 243 239 191 200 138 161 140 199 170 165 176 136 202 196 123 141 76 69 92 138 135 300 1183 1169 1170 894 978 1207 993 666 444 485 776 1108 663 72 6 0 7 16 4 1 0 0 0 0 0 0
1128 766 728 656 632 651 746 944 553 658 572 346 328 276 203 248 200 198 234 205 182 131 110 104 139 157 192 167 147 80 85 71 91 120 118 108 80 824 1099 910 942 1146 1170 888 807 941 710 987 694 97 6 0 0 0 0 7 3 0 0 0 0 0 0
1244 783 753 550 558 486 705 748 900 884 669 404 361 415 292 194 120 158 147 84 132 177 109 76 100 125 88 130 105 84 55 100 118 98 58 36 14 208 841 851 797 859 922 866 894 499 817 332 293 119 1 2 0 0 0 17 5 1 0 0 0 0 0
1123 1050 577 639 698 593 947 962 890 861 660 534 485 349 103 139 14 29 76 35 90 130 86 87 88 93 92 95 81 66 17 21 72 55 44 26 11 64 797 1010 698 1251 1269 1378 706 586 425 719 141 20 0 3 1 0 0 0 5 6 0 0 0 0 0
1346 731 760 945 638 685 939 926 972 834 339 373 191 70 1 4 4 3 7 43 32 107 68 60 66 29 45 57 83 103 48 50 44 41 21 1 24 76 260 1054 1179 912 966 1427 826 611 202 117 7 2 1 0 4 0 0 0 0 4 2 0 0 0 0
1069 1182 1320 1146 925 832 889 868 821 531 263 110 8 1 0 0 0 0 0 0 0 0 0 0 2 0 7 0 12 100 99 67 61 53 48 22 38 76 200 1020 1040 1037 1058 1180 490 137 96 50 30 35 0 0 0 0 0 0 0 0 0 2 0 0 0
716 981 1345 1052 894 747 706 705 457 219 85 6 0 0 4 0 0 0 0 0 0 0 0 0 0 0 0 0 0 19 109 87 40 100 72 51 40 59 95 683 1013 1235 982 1021 349 234 464 46 8 27 16 3 9 0 0 1 0 0 1 3 4 21 0
642 788 660 811 741 570 511 336 251 64 86 75 40 11 0 0 0 0 0 0 0 0 64 0 0 0 3 0 0 0 27 27 35 29 53 57 55 42 46 192 792 923 603 721 449 1292 932 296 365 143 46 60 74 34 20 14 14 18 28 23 41 44 104
374 428 457 516 424 472 311 152 37 15 9 3 0 0 0 0 0 0 0 0 0 438 4 0 0 0 0 0 0 23 0 14 12 7 10 19 37 30 40 69 73 0 368 233 113 0 0 0 53 470 354 253 457 84 119 93 141 116 99 123 124 115 142
391 258 428 526 513 414 288 132 24 4 95 250 228 110 4 0 0 0 1 387 110 0 0 0 0 0 0 0 0 200 0 0 6 8 14 5 16 31 44 27 1 7 6 0 15 0 0 0 0 0 0 0 88 1582 135 284 104 125 133 99 95 76 107
183 238 340 401 304 299 331 286 230 156 125 87 68 128 316 170 310 156 8 0 0 0 0 0 0 0 0 0 0 0 10 1 0 5 11 10 3 14 27 30 4 0 2 177 0 0 0 0 0 0 0 0 0 0 0 217 198 126 55 92 92 85 122
8 0 0 0 0 7 81 0 0 21 51 56 52 46 123 76 5 0 0 0 0 0 2 2 1 0 0 0 0 0 0 0 0 0 1 4 2 2 12 26 68 59 54 17 4 2 0 4 0 0 0 0 0 0 0 0 0 6 4 210 158 117 63
0 0 0 109 0 0 0 0 2 0 0 4 23 69 81 9 1 0 0 0 0 0 0 6 1 0 0 0 0 0 0 14 0 5 5 10 17 40 11 16 37 67 51 85 1 377 39 37 34 1 2 9 3 98 0 0 0 0 0 26 69 78 145
0 0 0 0 0 0 0 0 0 3 0 1 0 0 1 2 0 0 0 0 0 0 3 0 0 0 0 0 0 0 21 156 3 9 26 68 150 156 185 254 234 261 195 178 548 1230 255 85 324 318 138 73 50 58 205 80 17 0 3 14 26 69 132
0 9 16 3 0 0 0 0 2 1 0 0 0 0 0 0 0 1 2 2 0 0 0 0 0 0 0 0 0 0 555 178 18 12 18 30 30 19 44 67 89 53 148 195 471 1 31 70 131 318 364 407 326 271 318 444 734 434 619 341 317 277 291
12 24 6 0 0 0 0 0 0 2 0 0 0 0 0 3 4 5 5 0 0 0 0 0 0 0 0 0 0 54 111 181 311 332 377 383 180 73 146 205 282 141 864 431 298 0 0 2 55 42 68 124 210 232 210 1223 168 292 269 21 12 225 256
3 8 1 1 0 0 0 0 2 0 0 0 2 2 3 4 0 0 0 0 0 0 0 0 0 0 0 0 0 0 2 36 129 359 724 889 649 743 697 264 225 648 553 373 391 315 211 102 192 258 274 234 214 251 254 342 991 499 268 222 0 0 0
1 3 0 0 1 1 0 0 0 1 0 0 1 2 2 0 0 1 2 5 5 3 0 0 0 0 0 0 0 0 0 0 14 26 22 138 380 239 376 250 262 227 247 364 396 447 426 348 244 442 779 827 541 330 281 682 1013 802 338 453 388 342 135
1 1 1 2 1 0 0 3 5 0 0 0 0 0 0 0 0 1 3 7 12 8 4 2 0 0 0 0 0 0 0 0 0 0 0 0 0 4 12 13 12 4 4 0 0 49 164 243 248 239 215 580 923 425 611 640 660 836 624 408 742 636 416
1 0 0 0 0 0 1 2 2 0 1 1 0 1 3 4 2 3 5 6 8 0 0 10 13 12 11 10 7 1 4 0 0 0 0 0 1 0 0 0 0 0 0 0 0 0 0 0 0 44 82 193 336 444 546 526 474 506 605 604 350 276 770
0 1 1 0 0 2 1 0 1 3 0 0 0 0 1 3 3 8 8 3 0 0 0 3 3 5 5 6 7 8 2 0 0 0 0 0 0 0 0 0 0 0 3 0 0 0 0 0 0 0 0 0 0 22 158 195 281 325 359 620 780 527 431
0 0 0 0 0 0 0 1 1 0 0 0 2 1 1 1 2 3 3 2 1 0 0 0 0 1 1 1 1 2 1 1 0 0 0 1 0 0 0 0 0 0 0 0 0 0 0 0 0 0 0 0 0 0 0 0 0 56 124 274 353 544 482
0 0 0 0 0 0 0 0 0 0 0 0 0 0 0 0 0 0 0 0 0 0 0 0 0 0 0 0 0 0 0 0 0 0 0 0 0 0 0 0 0 0 0 0 0 0 0 0 0 0 0 0 0 0 0 0 0 0 0 0 36 127 97

ECMWFFLT1_con_mucape_060.txt.gz
CAPE
1290 1281 1486 1434 1420 1213 969 849 796 611 602 629 530 466 433 901 1662 1518 1678 1632 1503 1258 1264 1547 1626 1470 1215 942 1167 1260 1131 1488 1136 854 517 768 960 1185 1321 1370 876 918 906 540 426 389 210 108 119 224 410 551 419 359 402 345 8 8 15 4 6 11 0
1553 1490 1371 1254 1048 831 676 470 549 504 558 315 400 206 518 712 1147 1272 1195 1771 1439 1360 1300 1334 1452 1465 1587 1428 1293 1475 1123 1449 1300 1013 794 872 1373 1055 980 1233 1036 881 936 712 868 564 423 256 106 120 129 206 255 146 148 0 0 0 0 0 0 0 0
1316 1110 924 725 883 846 494 552 506 363 404 360 432 646 636 908 1053 1341 987 1076 1198 1218 1212 894 912 1441 1391 1411 1360 1634 1454 1490 1537 1370 1032 879 826 849 990 991 322 725 571 839 943 770 557 302 233 202 96 103 102 91 46 0 0 0 0 0 0 0 0
1195 935 843 730 867 743 727 503 366 536 748 505 807 696 1053 892 1249 925 1077 1174 1146 1326 962 732 934 1035 1658 1575 1388 1387 1421 1334 1332 1383 1100 666 528 810 1103 673 515 816 645 574 580 894 737 605 264 313 317 301 51 10 0 0 0 0 0 0 0 0 0
1136 944 1011 911 955 776 810 456 555 545 595 600 615 615 1118 1187 1432 1382 1083 1124 1234 1148 1094 1453 1283 1438 1539 1598 1508 1413 1324 1497 1570 1428 1198 889 735 877 953 814 860 1077 766 677 488 731 694 531 352 178 204 137 40 2 0 0 0 0 0 0 0 0 0
1077 1131 1238 1159 1107 854 593 578 468 451 326 429 344 547 1366 1396 1409 1408 1311 1318 1286 1037 1072 1194 1729 1149 1284 1380 1490 1366 1265 1266 1261 1343 1130 920 804 704 706 1431 1298 1219 929 1041 1062 852 630 759 637 224 150 99 27 0 0 0 0 0 0 0 0 0 0
979 1177 1178 1188 1040 893 740 617 635 521 367 474 513 998 1360 1370 1346 1456 1352 1184 1063 1006 1254 1655 1329 1305 1229 999 1211 1125 1098 1414 1307 1375 1072 932 1161 1162 1117 835 1227 756 956 926 1001 1033 727 550 544 348 136 63 0 0 0 0 0 0 0 0 0 0 0
909 1085 990 822 878 920 744 615 454 630 587 676 892 1404 1270 1385 1317 1227 1062 1017 1009 1111 1350 1509 1520 1362 1502 980 1018 1223 1220 1271 1305 1214 1066 866 1270 1196 1204 1164 856 542 606 826 989 1020 792 682 602 351 174 7 0 0 0 0 0 0 0 0 0 0 0
936 1114 842 543 526 509 369 437 456 587 910 1250 1163 1142 1134 1193 1078 1066 888 898 893 978 1034 1080 1155 1045 1487 1366 1235 1074 922 854 1353 1278 1147 1127 1269 1267 1058 827 879 776 750 656 736 848 753 1198 1093 445 343 6 0 0 0 0 0 0 0 0 0 0 0
1122 1030 671 475 383 324 265 373 487 615 1026 1236 1127 1235 1186 1335 1081 871 641 831 927 888 827 761 837 1040 1499 1259 1288 1323 1147 1060 1067 990 1213 1119 1360 1197 849 783 958 1141 1200 1012 1148 1245 1339 927 987 760 866 231 0 0 0 0 0 0 0 0 0 0 0
1146 1012 619 424 432 388 564 637 814 1108 891 1069 946 830 1195 1127 1018 797 889 810 849 725 676 490 370 663 1159 1312 1228 1246 967 1138 1329 1225 1280 1207 1196 1099 1058 743 868 817 843 729 577 896 1224 1139 1207 1053 731 474 210 0 0 0 0 0 0 0 0 0 0
1175 1291 1061 656 687 715 888 1013 922 816 1063 808 813 955 796 755 959 808 942 696 627 647 512 476 461 532 727 781 985 1178 1149 1399 1269 1287 1279 1206 1329 1271 1163 859 778 824 874 728 640 780 1149 1246 1210 1114 712 489 167 124 0 0 0 0 0 0 0 0 0
889 884 695 712 802 733 908 989 890 991 1029 775 801 754 732 766 708 547 644 576 592 545 534 372 578 709 654 768 752 759 1057 1056 992 1001 911 1054 997 1279 1238 1164 872 966 940 660 600 841 1059 940 712 714 470 464 528 225 197 0 0 0 0 0 0 0 0
678 637 618 600 525 536 798 833 950 892 610 774 682 641 538 564 416 385 264 368 385 467 493 458 656 438 474 464 454 625 679 686 355 535 426 940 803 1099 979 810 865 1057 944 711 864 904 869 1000 886 1032 443 440 399 205 96 0 0 0 0 0 0 0 0
626 422 476 409 193 659 792 901 926 536 723 612 512 494 489 451 401 244 197 163 270 229 288 317 358 468 334 442 442 348 433 344 140 232 229 500 524 762 1279 707 874 750 902 779 836 751 862 973 675 616 465 315 112 28 170 1 0 0 0 0 0 0 0
505 371 159 133 476 848 711 914 761 837 710 409 533 608 403 406 282 255 185 241 171 195 165 305 130 399 468 246 232 242 431 226 347 198 213 211 187 632 986 1065 808 868 651 737 1001 1044 1030 992 547 557 334 93 23 15 31 1 0 0 0 0 0 0 0
247 177 62 190 413 686 910 852 766 773 494 376 465 593 380 301 288 321 291 229 230 115 181 54 117 139 140 178 219 114 38 271 224 230 230 150 80 473 960 1010 842 652 778 1074 667 258 420 912 932 768 262 19 49 1 57 0 0 0 0 0 0 0 0
413 317 186 160 439 1004 1007 884 813 780 574 442 469 462 217 320 242 124 262 143 166 90 150 28 25 56 112 159 165 178 83 80 238 119 165 32 150 500 824 889 861 566 934 848 476 368 240 347 754 428 137 57 0 3 37 7 0 0 0 0 0 0 0
387 326 180 272 682 830 817 920 1054 627 433 480 450 255 152 94 82 56 50 109 92 99 80 51 50 19 37 34 91 390 100 282 82 116 0 45 68 512 816 896 683 908 929 786 741 558 281 362 342 188 125 33 0 0 0 9 2 0 0 0 0 0 0
170 212 310 388 522 884 943 798 611 601 470 293 153 119 89 86 68 26 48 107 80 50 29 0 42 39 28 3 14 90 126 166 50 215 4 60 144 280 694 775 803 805 677 751 481 486 471 546 460 165 89 266 0 0 29 4 0 0 1 0 0 0 0
119 40 124 501 822 758 516 431 304 286 221 123 66 48 39 21 3 4 4 0 3 2 0 0 0 0 0 4 22 15 87 95 215 48 184 184 113 232 657 543 485 532 609 618 898 737 412 317 270 233 456 68 209 0 0 5 20 5 12 0 0 0 0
211 233 499 381 529 722 572 318 265 130 98 65 74 36 38 13 22 1 0 70 47 0 0 0 0 0 0 0 0 27 115 99 104 218 10 114 42 161 391 632 412 582 613 967 760 876 674 748 1328 348 201 131 272 48 15 58 8 93 72 24 26 4 0
279 487 851 625 690 614 569 460 239 103 79 105 60 44 25 2 0 0 47 0 0 0 0 0 0 0 0 0 0 0 44 63 36 164 84 116 52 66 400 398 467 531 627 623 500 384 0 0 0 12 69 500 218 233 329 100 132 33 43 62 26 52 15
277 383 452 450 458 399 184 123 92 126 256 274 204 6 3 146 9 2 0 0 0 0 0 0 0 0 0 0 0 0 0 4 44 105 5 100 278 62 115 7 0 120 389 418 228 0 0 0 0 0 0 14 61 1056 839 362 323 568 301 173 194 175 97
344 263 338 428 353 137 73 88 110 143 174 226 271 143 3 0 0 0 0 0 0 0 0 0 0 0 0 0 0 0 0 0 17 4 10 25 61 85 74 0 0 10 25 18 240 99 0 0 0 0 0 0 0 0 89 47 118 192 394 91 218 195 115
239 176 206 184 98 0 0 2 3 17 34 40 43 5 0 0 0 0 0 0 0 0 0 0 0 0 0 0 0 0 0 0 0 2 0 52 66 222 90 0 22 47 15 0 0 0 0 0 0 0 0 0 0 0 0 0 0 22 104 6 56 104 305
149 180 164 43 0 0 0 0 10 8 5 13 10 0 0 0 0 0 0 0 0 0 0 0 0 0 0 0 0 0 0 0 112 103 114 243 296 259 389 128 173 258 38 4 45 21 0 0 0 0 0 0 1 2 0 0 31 78 90 94 85 82 99
28 105 138 119 69 0 0 0 0 0 0 0 0 0 0 0 0 1 0 0 0 0 0 0 0 0 3 2 1 0 0 232 210 30 10 65 129 235 188 316 83 329 22 0 0 0 0 296 100 32 10 35 29 41 59 50 7 0 0 0 57 90 96
0 0 0 57 63 49 0 0 0 0 0 0 0 0 0 1 0 0 0 0 0 0 0 0 0 0 0 1 4 0 125 350 136 52 26 4 19 26 58 174 154 18 0 0 0 0 0 0 106 177 627 478 333 238 200 169 101 91 103 120 81 12 29
0 0 0 22 39 18 21 0 3 0 0 0 0 0 2 3 0 0 4 2 0 0 0 0 0 0 0 0 0 0 0 7 121 258 230 313 118 0 0 251 234 17 0 0 0 0 0 1 90 148 78 93 165 282 319 916 340 214 202 195 183 158 369
19 15 23 8 1 5 0 2 1 0 0 1 1 3 2 0 2 4 6 6 7 1 0 0 0 0 0 0 0 0 0 0 22 1 98 322 208 0 2 118 0 0 0 0 0 0 0 0 7 43 141 330 596 595 209 167 409 476 385 308 250 237 242
2 8 3 0 6 8 4 0 0 0 0 2 7 4 2 5 6 4 6 7 4 2 9 0 0 0 0 0 0 0 0 0 0 0 0 0 97 0 0 102 164 35 0 0 0 0 97 184 201 187 158 74 187 419 409 333 217 52 231 401 557 537 430
0 1 0 3 0 0 1 1 2 9 5 4 3 5 3 2 2 6 4 4 6 5 1 0 0 0 0 0 0 0 0 0 0 0 0 0 0 0 0 0 0 0 0 0 0 0 0 0 0 5 5 65 83 105 150 206 272 224 216 270 310 408 505
1 3 5 2 3 2 1 1 2 6 8 4 1 0 4 7 7 8 9 9 16 9 4 5 4 0 0 0 0 0 0 0 0 0 0 0 0 0 0 0 0 0 0 0 0 0 0 0 0 0 0 0 0 0 0 60 81 189 244 314 379 427 473
0 1 0 2 3 2 1 2 4 4 1 0 4 11 7 12 10 9 7 8 7 4 2 2 7 8 6 0 0 0 0 0 0 0 0 0 0 0 0 0 0 0 0 0 0 0 0 0 0 0 0 0 0 0 0 0 0 0 0 0 0 0 27
0 0 0 0 0 1 4 6 7 6 6 7 6 10 10 7 8 8 6 6 8 7 6 6 2 0 1 2 3 2 0 0 0 0 0 0 0 0 0 0 0 0 0 0 0 0 0 0 0 0 0 0 0 0 0 0 0 0 0 0 0 0 0
2 2 3 4 3 2 4 6 8 3 1 2 3 5 4 3 2 5 7 6 4 4 5 5 4 2 1 2 1 0 0 0 0 0 0 0 0 0 0 0 0 0 0 0 0 0 0 0 0 0 0 0 0 0 0 0 0 0 0 0 0 0 0